| time (UTC) | temp F | wind direction | speed knots | gust knots | rain 1hr in | rain 24hr in | rain mn in | humidity % | barometer mb |
| 20260510075306 | 62 | 186 | 1.7 | 6.1 | 0.00 | 0.00 | 0.00 | 62 | |
| 20260510075206 | 62 | 179 | 2.6 | 6.1 | 0.00 | 0.00 | 0.00 | 63 | |
| 20260510075106 | 62 | 174 | 1.7 | 6.1 | 0.00 | 0.00 | 0.00 | 62 | |
| 20260510075006 | 62 | 185 | 2.6 | 6.1 | 0.00 | 0.00 | 0.00 | 62 | |
| 20260510074906 | 62 | 170 | 2.6 | 6.1 | 0.00 | 0.00 | 0.00 | 61 | |
| 20260510074806 | 62 | 170 | 1.7 | 3.5 | 0.00 | 0.00 | 0.00 | 62 | |
| 20260510074706 | 62 | 180 | 1.7 | 3.5 | 0.00 | 0.00 | 0.00 | 62 | |
| 20260510074606 | 62 | 173 | 1.7 | 3.5 | 0.00 | 0.00 | 0.00 | 62 | |
| 20260510074506 | 62 | 173 | 2.6 | 3.5 | 0.00 | 0.00 | 0.00 | 62 | |
| 20260510074406 | 62 | 176 | 0.9 | 3.5 | 0.00 | 0.00 | 0.00 | 62 | |
| 20260510074306 | 62 | 187 | 0.9 | 3.5 | 0.00 | 0.00 | 0.00 | 62 | |
| 20260510074206 | 62 | 188 | 1.7 | 3.5 | 0.00 | 0.00 | 0.00 | 62 | |
| 20260510074106 | 62 | 181 | 1.7 | 3.5 | 0.00 | 0.00 | 0.00 | 62 | |
| 20260510074006 | 62 | 187 | 1.7 | 3.5 | 0.00 | 0.00 | 0.00 | 62 | |
| 20260510073906 | 62 | 186 | 1.7 | 3.5 | 0.00 | 0.00 | 0.00 | 63 | |
| 20260510073806 | 62 | 168 | 2.6 | 3.5 | 0.00 | 0.00 | 0.00 | 62 | |
| 20260510073706 | 62 | 179 | 1.7 | 3.5 | 0.00 | 0.00 | 0.00 | 63 | |
| 20260510073606 | 62 | 168 | 1.7 | 3.5 | 0.00 | 0.00 | 0.00 | 63 | |
| 20260510073506 | 62 | 166 | 1.7 | 4.3 | 0.00 | 0.00 | 0.00 | 63 | |
| 20260510073406 | 62 | 185 | 1.7 | 4.3 | 0.00 | 0.00 | 0.00 | 62 | |
| 20260510073306 | 62 | 187 | 0.9 | 4.3 | 0.00 | 0.00 | 0.00 | 63 | |
| 20260510073206 | 62 | 186 | 1.7 | 4.3 | 0.00 | 0.00 | 0.00 | 62 | |
| 20260510073106 | 62 | 178 | 2.6 | 4.3 | 0.00 | 0.00 | 0.00 | 62 | |
| 20260510073006 | 62 | 173 | 1.7 | 3.5 | 0.00 | 0.00 | 0.00 | 62 | |
| 20260510072906 | 62 | 185 | 1.7 | 3.5 | 0.00 | 0.00 | 0.00 | 62 | |
| 20260510072806 | 62 | 185 | 0.9 | 3.5 | 0.00 | 0.00 | 0.00 | 62 | |
| 20260510072706 | 62 | 175 | 0.9 | 3.5 | 0.00 | 0.00 | 0.00 | 62 | |
| 20260510072606 | 62 | 179 | 0.9 | 3.5 | 0.00 | 0.00 | 0.00 | 62 | |
| 20260510072506 | 62 | 168 | 0.9 | 3.5 | 0.00 | 0.00 | 0.00 | 62 | |
| 20260510072406 | 62 | 173 | 1.7 | 3.5 | 0.00 | 0.00 | 0.00 | 62 | |
| 20260510072306 | 62 | 178 | 1.7 | 3.5 | 0.00 | 0.00 | 0.00 | 62 | |
| 20260510072206 | 62 | 179 | 1.7 | 3.5 | 0.00 | 0.00 | 0.00 | 62 | |
| 20260510072106 | 62 | 187 | 0.9 | 3.5 | 0.00 | 0.00 | 0.00 | 62 | |
| 20260510072006 | 62 | 182 | 0.9 | 3.5 | 0.00 | 0.00 | 0.00 | 62 | |
| 20260510071906 | 62 | 178 | 0.9 | 3.5 | 0.00 | 0.00 | 0.00 | 62 | |
| 20260510071806 | 62 | 175 | 0.9 | 3.5 | 0.00 | 0.00 | 0.00 | 62 | |
| 20260510071706 | 62 | 168 | 0.9 | 3.5 | 0.00 | 0.00 | 0.00 | 63 | |
| 20260510071606 | 61 | 174 | 0.9 | 3.5 | 0.00 | 0.00 | 0.00 | 63 | |
| 20260510071506 | 61 | 174 | 0.0 | 3.5 | 0.00 | 0.00 | 0.00 | 64 | |
| 20260510071406 | 61 | 173 | 1.7 | 4.3 | 0.00 | 0.00 | 0.00 | 63 | |
| 20260510071306 | 61 | 178 | 2.6 | 4.3 | 0.00 | 0.00 | 0.00 | 63 | |
| 20260510071206 | 61 | 177 | 1.7 | 4.3 | 0.00 | 0.00 | 0.00 | 64 | |
| 20260510071106 | 61 | 185 | 1.7 | 4.3 | 0.00 | 0.00 | 0.00 | 64 | |
| 20260510071006 | 61 | 178 | 2.6 | 4.3 | 0.00 | 0.00 | 0.00 | 63 | |
| 20260510070906 | 61 | 186 | 0.9 | 4.3 | 0.00 | 0.00 | 0.00 | 64 | |
| 20260510070806 | 61 | 176 | 0.9 | 4.3 | 0.00 | 0.00 | 0.00 | 64 | |
| 20260510070706 | 61 | 176 | 0.9 | 4.3 | 0.00 | 0.00 | 0.00 | 64 | |
| 20260510070606 | 61 | 173 | 0.9 | 4.3 | 0.00 | 0.00 | 0.00 | 65 | |
| 20260510070506 | 61 | 176 | 2.6 | 4.3 | 0.00 | 0.00 | 0.00 | 64 | |
| 20260510070406 | 61 | 174 | 1.7 | 4.3 | 0.00 | 0.00 | 0.00 | 64 | |
| 20260510070306 | 61 | 172 | 1.7 | 3.5 | 0.00 | 0.00 | 0.00 | 64 | |
| 20260510070206 | 61 | 184 | 0.9 | 3.5 | 0.00 | 0.00 | 0.00 | 64 | |
| 20260510070106 | 61 | 174 | 0.9 | 3.5 | 0.00 | 0.00 | 0.00 | 65 | |
| 20260510070006 | 60 | 185 | 0.9 | 3.5 | 0.00 | 0.00 | 0.00 | 65 | |
| 20260510065906 | 60 | 176 | 1.7 | 3.5 | 0.00 | 0.00 | 0.00 | 65 | |
| 20260510065806 | 60 | 176 | 0.9 | 3.5 | 0.00 | 0.00 | 0.00 | 65 | |
| 20260510065706 | 60 | 186 | 1.7 | 3.5 | 0.00 | 0.00 | 0.00 | 65 | |
| 20260510065606 | 60 | 180 | 1.7 | 3.5 | 0.00 | 0.00 | 0.00 | 65 | |
| 20260510065506 | 60 | 178 | 1.7 | 3.5 | 0.00 | 0.00 | 0.00 | 65 | |
| 20260510065406 | 60 | 175 | 1.7 | 3.5 | 0.00 | 0.00 | 0.00 | 65 | |
| 20260510065306 | 60 | 175 | 0.9 | 3.5 | 0.00 | 0.00 | 0.00 | 65 | |
| 20260510065206 | 60 | 189 | 0.0 | 4.3 | 0.00 | 0.00 | 0.00 | 65 | |
| 20260510065106 | 60 | 188 | 0.9 | 4.3 | 0.00 | 0.00 | 0.00 | 65 | |
| 20260510065006 | 60 | 174 | 1.7 | 4.3 | 0.00 | 0.00 | 0.00 | 65 | |
| 20260510064906 | 60 | 185 | 1.7 | 4.3 | 0.00 | 0.00 | 0.00 | 65 | |
| 20260510064806 | 60 | 168 | 2.6 | 4.3 | 0.00 | 0.00 | 0.00 | 65 | |
| 20260510064706 | 59 | 181 | 0.9 | 3.5 | 0.00 | 0.00 | 0.00 | 66 | |
| 20260510064606 | 59 | 173 | 1.7 | 4.3 | 0.00 | 0.00 | 0.00 | 66 | |
| 20260510064506 | 59 | 184 | 1.7 | 4.3 | 0.00 | 0.00 | 0.00 | 65 | |
| 20260510064406 | 59 | 179 | 2.6 | 4.3 | 0.00 | 0.00 | 0.00 | 66 | |
| 20260510064306 | 59 | 176 | 1.7 | 4.3 | 0.00 | 0.00 | 0.00 | 66 | |
| 20260510064206 | 59 | 165 | 2.6 | 4.3 | 0.00 | 0.00 | 0.00 | 65 | |
| 20260510064106 | 59 | 186 | 2.6 | 4.3 | 0.00 | 0.00 | 0.00 | 66 | |
| 20260510064006 | 59 | 169 | 2.6 | 4.3 | 0.00 | 0.00 | 0.00 | 65 | |
| 20260510063906 | 59 | 179 | 1.7 | 3.5 | 0.00 | 0.00 | 0.00 | 65 | |
| 20260510063806 | 59 | 182 | 0.9 | 3.5 | 0.00 | 0.00 | 0.00 | 66 | |
| 20260510063706 | 59 | 189 | 1.7 | 3.5 | 0.00 | 0.00 | 0.00 | 66 | |
| 20260510063606 | 59 | 182 | 1.7 | 3.5 | 0.00 | 0.00 | 0.00 | 65 | |
| 20260510063506 | 59 | 187 | 0.9 | 1.7 | 0.00 | 0.00 | 0.00 | 66 | |
| 20260510063406 | 59 | 175 | 0.9 | 1.7 | 0.00 | 0.00 | 0.00 | 66 | |
| 20260510063306 | 59 | 182 | 0.9 | 1.7 | 0.00 | 0.00 | 0.00 | 66 | |
| 20260510063206 | 59 | 173 | 0.9 | 1.7 | 0.00 | 0.00 | 0.00 | 66 | |
| 20260510063106 | 59 | 177 | 0.0 | 1.7 | 0.00 | 0.00 | 0.00 | 67 | |
| 20260510063006 | 59 | 180 | 0.0 | 1.7 | 0.00 | 0.00 | 0.00 | 67 | |
| 20260510062906 | 59 | 184 | 0.0 | 1.7 | 0.00 | 0.00 | 0.00 | 67 | |
| 20260510062806 | 58 | 185 | 0.0 | 1.7 | 0.00 | 0.00 | 0.00 | 68 | |
| 20260510062706 | 58 | 186 | 0.0 | 3.5 | 0.00 | 0.00 | 0.00 | 68 | |
| 20260510062606 | 58 | 184 | 0.9 | 3.5 | 0.00 | 0.00 | 0.00 | 67 | |
| 20260510062506 | 58 | 186 | 0.9 | 3.5 | 0.00 | 0.00 | 0.00 | 68 | |
| 20260510062406 | 58 | 184 | 0.9 | 3.5 | 0.00 | 0.00 | 0.00 | 68 | |
| 20260510062307 | 58 | 186 | 0.9 | 3.5 | 0.00 | 0.00 | 0.00 | 69 | |
| 20260510062206 | 58 | 179 | 0.9 | 1.7 | 0.00 | 0.00 | 0.00 | 69 | |
| 20260510062106 | 58 | 187 | 0.0 | 1.7 | 0.00 | 0.00 | 0.00 | 69 | |
| 20260510062006 | 58 | 184 | 0.9 | 1.7 | 0.00 | 0.00 | 0.00 | 69 | |
| 20260510061906 | 58 | 176 | 0.9 | 1.7 | 0.00 | 0.00 | 0.00 | 69 | |
| 20260510061806 | 58 | 187 | 0.9 | 1.7 | 0.00 | 0.00 | 0.00 | 69 | |
| 20260510061706 | 58 | 186 | 0.0 | 1.7 | 0.00 | 0.00 | 0.00 | 69 | |
| 20260510061606 | 58 | 176 | 0.0 | 1.7 | 0.00 | 0.00 | 0.00 | 70 | |
| 20260510061506 | 57 | 184 | 0.0 | 1.7 | 0.00 | 0.00 | 0.00 | 70 | |
| 20260510061406 | 57 | 186 | 0.9 | 1.7 | 0.00 | 0.00 | 0.00 | 70 | |
| 20260510061306 | 57 | 184 | 0.9 | 1.7 | 0.00 | 0.00 | 0.00 | 70 | |
| 20260510061206 | 57 | 184 | 0.0 | 1.7 | 0.00 | 0.00 | 0.00 | 70 | |
| 20260510061106 | 57 | 187 | 0.9 | 1.7 | 0.00 | 0.00 | 0.00 | 71 | |
| 20260510061006 | 57 | 184 | 0.9 | 1.7 | 0.00 | 0.00 | 0.00 | 70 | |
| 20260510060906 | 57 | 184 | 0.0 | 1.7 | 0.00 | 0.00 | 0.00 | 71 | |
| 20260510060806 | 57 | 187 | 0.9 | 1.7 | 0.00 | 0.00 | 0.00 | 71 | |
| 20260510060706 | 57 | 183 | 0.0 | 3.5 | 0.00 | 0.00 | 0.00 | 71 | |
| 20260510060606 | 57 | 183 | 0.0 | 3.5 | 0.00 | 0.00 | 0.00 | 72 | |
| 20260510060506 | 57 | 183 | 0.0 | 3.5 | 0.00 | 0.00 | 0.00 | 72 | |
| 20260510060406 | 56 | 183 | 0.0 | 3.5 | 0.00 | 0.00 | 0.00 | 72 | |
| 20260510060306 | 56 | 180 | 1.7 | 3.5 | 0.00 | 0.00 | 0.00 | 72 | |
| 20260510060206 | 56 | 182 | 1.7 | 3.5 | 0.00 | 0.00 | 0.00 | 72 | |
| 20260510060106 | 56 | 173 | 1.7 | 4.3 | 0.00 | 0.00 | 0.00 | 72 | |
| 20260510060006 | 56 | 173 | 1.7 | 4.3 | 0.00 | 0.00 | 0.00 | 72 | |
| 20260510055906 | 56 | 172 | 1.7 | 4.3 | 0.00 | 0.00 | 0.00 | 72 | |
| 20260510055806 | 56 | 179 | 1.7 | 4.3 | 0.00 | 0.00 | 0.00 | 72 | |
| 20260510055706 | 56 | 175 | 2.6 | 4.3 | 0.00 | 0.00 | 0.00 | 72 | |
| 20260510055606 | 56 | 186 | 2.6 | 4.3 | 0.00 | 0.00 | 0.00 | 72 | |
| 20260510055506 | 56 | 184 | 2.6 | 4.3 | 0.00 | 0.00 | 0.00 | 72 | |
| 20260510055406 | 56 | 176 | 1.7 | 4.3 | 0.00 | 0.00 | 0.00 | 73 | |
| 20260510055307 | 56 | 186 | 1.7 | 4.3 | 0.00 | 0.00 | 0.00 | 73 | |
| 20260510055206 | 56 | 182 | 2.6 | 4.3 | 0.00 | 0.00 | 0.00 | 73 | |
| 20260510055106 | 56 | 171 | 2.6 | 4.3 | 0.00 | 0.00 | 0.00 | 73 | |
| 20260510055006 | 56 | 172 | 1.7 | 4.3 | 0.00 | 0.00 | 0.00 | 73 | |
| 20260510054906 | 56 | 187 | 1.7 | 4.3 | 0.00 | 0.00 | 0.00 | 73 | |
| 20260510054806 | 56 | 181 | 2.6 | 4.3 | 0.00 | 0.00 | 0.00 | 74 | |
| 20260510054706 | 55 | 180 | 2.6 | 4.3 | 0.00 | 0.00 | 0.00 | 73 | |
| 20260510054606 | 55 | 169 | 2.6 | 4.3 | 0.00 | 0.00 | 0.00 | 73 | |
| 20260510054506 | 55 | 181 | 3.5 | 4.3 | 0.00 | 0.00 | 0.00 | 73 | |
| 20260510054406 | 55 | 168 | 2.6 | 4.3 | 0.00 | 0.00 | 0.00 | 73 | |
| 20260510054306 | 55 | 186 | 1.7 | 4.3 | 0.00 | 0.00 | 0.00 | 73 | |
| 20260510054206 | 55 | 173 | 2.6 | 4.3 | 0.00 | 0.00 | 0.00 | 74 | |
| 20260510054106 | 55 | 185 | 3.5 | 4.3 | 0.00 | 0.00 | 0.00 | 74 | |
| 20260510054006 | 55 | 167 | 3.5 | 4.3 | 0.00 | 0.00 | 0.00 | 73 | |
| 20260510053906 | 55 | 175 | 2.6 | 4.3 | 0.00 | 0.00 | 0.00 | 74 | |
| 20260510053806 | 55 | 176 | 2.6 | 4.3 | 0.00 | 0.00 | 0.00 | 74 | |
| 20260510053706 | 55 | 184 | 2.6 | 4.3 | 0.00 | 0.00 | 0.00 | 74 | |
| 20260510053606 | 55 | 184 | 2.6 | 4.3 | 0.00 | 0.00 | 0.00 | 74 | |
| 20260510053506 | 55 | 175 | 1.7 | 4.3 | 0.00 | 0.00 | 0.00 | 74 | |
| 20260510053406 | 55 | 186 | 2.6 | 4.3 | 0.00 | 0.00 | 0.00 | 74 | |
| 20260510053306 | 55 | 174 | 1.7 | 4.3 | 0.00 | 0.00 | 0.00 | 74 | |
| 20260510053206 | 55 | 184 | 1.7 | 4.3 | 0.00 | 0.00 | 0.00 | 74 | |
| 20260510053106 | 55 | 173 | 2.6 | 4.3 | 0.00 | 0.00 | 0.00 | 74 | |
| 20260510053006 | 55 | 170 | 2.6 | 4.3 | 0.00 | 0.00 | 0.00 | 75 | |
| 20260510052906 | 55 | 185 | 2.6 | 4.3 | 0.00 | 0.00 | 0.00 | 74 | |
| 20260510052806 | 55 | 161 | 2.6 | 4.3 | 0.00 | 0.00 | 0.00 | 74 | |
| 20260510052706 | 55 | 178 | 3.5 | 4.3 | 0.00 | 0.00 | 0.00 | 74 | |
| 20260510052606 | 55 | 183 | 2.6 | 4.3 | 0.00 | 0.00 | 0.00 | 74 | |
| 20260510052506 | 55 | 173 | 1.7 | 4.3 | 0.00 | 0.00 | 0.00 | 74 | |
| 20260510052406 | 55 | 166 | 1.7 | 4.3 | 0.00 | 0.00 | 0.00 | 74 | |
| 20260510052307 | 55 | 175 | 2.6 | 4.3 | 0.00 | 0.00 | 0.00 | 75 | |
| 20260510052206 | 55 | 174 | 1.7 | 4.3 | 0.00 | 0.00 | 0.00 | 74 | |
| 20260510052106 | 55 | 183 | 1.7 | 4.3 | 0.00 | 0.00 | 0.00 | 74 | |
| 20260510052006 | 55 | 182 | 1.7 | 3.5 | 0.00 | 0.00 | 0.00 | 75 | |
| 20260510051906 | 55 | 175 | 1.7 | 3.5 | 0.00 | 0.00 | 0.00 | 74 | |
| 20260510051806 | 55 | 174 | 1.7 | 3.5 | 0.00 | 0.00 | 0.00 | 75 | |
| 20260510051706 | 55 | 177 | 0.9 | 3.5 | 0.00 | 0.00 | 0.00 | 75 | |
| 20260510051606 | 55 | 185 | 1.7 | 6.1 | 0.00 | 0.00 | 0.00 | 75 | |
| 20260510051506 | 55 | 181 | 1.7 | 6.1 | 0.00 | 0.00 | 0.00 | 75 | |
| 20260510051406 | 55 | 169 | 1.7 | 6.1 | 0.00 | 0.00 | 0.00 | 75 | |
| 20260510051306 | 54 | 187 | 0.9 | 6.1 | 0.00 | 0.00 | 0.00 | 75 | |
| 20260510051206 | 54 | 181 | 2.6 | 6.1 | 0.00 | 0.00 | 0.00 | 75 | |
| 20260510051106 | 54 | 184 | 2.6 | 4.3 | 0.00 | 0.00 | 0.00 | 75 | |
| 20260510051006 | 54 | 183 | 1.7 | 4.3 | 0.00 | 0.00 | 0.00 | 76 | |
| 20260510050906 | 54 | 186 | 1.7 | 4.3 | 0.00 | 0.00 | 0.00 | 76 | |
| 20260510050806 | 54 | 179 | 0.9 | 3.5 | 0.00 | 0.00 | 0.00 | 76 | |
| 20260510050706 | 54 | 183 | 0.9 | 3.5 | 0.00 | 0.00 | 0.00 | 76 | |
| 20260510050606 | 54 | 187 | 1.7 | 3.5 | 0.00 | 0.00 | 0.00 | 76 | |
| 20260510050506 | 54 | 187 | 1.7 | 3.5 | 0.00 | 0.00 | 0.00 | 76 | |
| 20260510050406 | 54 | 175 | 1.7 | 3.5 | 0.00 | 0.00 | 0.00 | 76 | |
| 20260510050306 | 54 | 179 | 1.7 | 3.5 | 0.00 | 0.00 | 0.00 | 76 | |
| 20260510050206 | 54 | 174 | 1.7 | 3.5 | 0.00 | 0.00 | 0.00 | 76 | |
| 20260510050106 | 54 | 169 | 0.9 | 3.5 | 0.00 | 0.00 | 0.00 | 76 | |
| 20260510050006 | 54 | 179 | 1.7 | 3.5 | 0.00 | 0.00 | 0.00 | 76 | |
| 20260510045906 | 54 | 178 | 1.7 | 3.5 | 0.00 | 0.00 | 0.00 | 76 | |
| 20260510045806 | 54 | 176 | 0.9 | 3.5 | 0.00 | 0.00 | 0.00 | 76 | |
| 20260510045706 | 54 | 173 | 0.9 | 3.5 | 0.00 | 0.00 | 0.00 | 76 | |
| 20260510045606 | 54 | 173 | 0.9 | 3.5 | 0.00 | 0.00 | 0.00 | 76 | |
| 20260510045506 | 54 | 186 | 0.9 | 3.5 | 0.00 | 0.00 | 0.00 | 76 | |
| 20260510045406 | 54 | 184 | 0.9 | 3.5 | 0.00 | 0.00 | 0.00 | 76 | |
| 20260510045306 | 54 | 186 | 0.9 | 3.5 | 0.00 | 0.00 | 0.00 | 76 | |
| 20260510045206 | 54 | 175 | 1.7 | 3.5 | 0.00 | 0.00 | 0.00 | 75 | |
| 20260510045106 | 54 | 184 | 0.9 | 3.5 | 0.00 | 0.00 | 0.00 | 75 | |
| 20260510045006 | 55 | 181 | 0.9 | 3.5 | 0.00 | 0.00 | 0.00 | 75 | |
| 20260510044906 | 55 | 174 | 0.9 | 3.5 | 0.00 | 0.00 | 0.00 | 75 | |
| 20260510044806 | 55 | 186 | 0.9 | 3.5 | 0.00 | 0.00 | 0.00 | 75 | |
| 20260510044706 | 55 | 185 | 0.9 | 3.5 | 0.00 | 0.00 | 0.00 | 74 | |
| 20260510044606 | 55 | 170 | 1.7 | 3.5 | 0.00 | 0.00 | 0.00 | 74 | |
| 20260510044506 | 55 | 173 | 1.7 | 3.5 | 0.00 | 0.00 | 0.00 | 74 | |
| 20260510044406 | 55 | 169 | 1.7 | 3.5 | 0.00 | 0.00 | 0.00 | 75 | |
| 20260510044306 | 55 | 175 | 0.9 | 3.5 | 0.00 | 0.00 | 0.00 | 74 | |
| 20260510044206 | 55 | 180 | 0.9 | 3.5 | 0.00 | 0.00 | 0.00 | 74 | |
| 20260510044106 | 55 | 187 | 0.9 | 3.5 | 0.00 | 0.00 | 0.00 | 75 | |
| 20260510044006 | 55 | 173 | 0.9 | 3.5 | 0.00 | 0.00 | 0.00 | 74 | |
| 20260510043906 | 55 | 185 | 0.9 | 1.7 | 0.00 | 0.00 | 0.00 | 74 | |
| 20260510043806 | 55 | 181 | 0.0 | 1.7 | 0.00 | 0.00 | 0.00 | 74 | |
| 20260510043706 | 55 | 185 | 0.0 | 1.7 | 0.00 | 0.00 | 0.00 | 74 | |
| 20260510043606 | 55 | 182 | 0.0 | 1.7 | 0.00 | 0.00 | 0.00 | 74 | |
| 20260510043506 | 55 | 181 | 0.0 | 0.9 | 0.00 | 0.00 | 0.00 | 74 | |
| 20260510043406 | 55 | 183 | 0.0 | 0.9 | 0.00 | 0.00 | 0.00 | 74 | |
| 20260510043306 | 55 | 182 | 0.0 | 0.9 | 0.00 | 0.00 | 0.00 | 74 | |
| 20260510043206 | 55 | 174 | 0.0 | 0.9 | 0.00 | 0.00 | 0.00 | 74 | |
| 20260510043106 | 55 | 183 | 0.0 | 0.9 | 0.00 | 0.00 | 0.00 | 74 | |
| 20260510043006 | 55 | 183 | 0.0 | 0.9 | 0.00 | 0.00 | 0.00 | 74 | |
| 20260510042906 | 55 | 183 | 0.0 | 1.7 | 0.00 | 0.00 | 0.00 | 75 | |
| 20260510042806 | 55 | 174 | 0.0 | 1.7 | 0.00 | 0.00 | 0.00 | 75 | |
| 20260510042706 | 55 | 178 | 0.0 | 1.7 | 0.00 | 0.00 | 0.00 | 75 | |
| 20260510042606 | 55 | 182 | 0.0 | 1.7 | 0.00 | 0.00 | 0.00 | 75 | |
| 20260510042506 | 55 | 183 | 0.0 | 1.7 | 0.00 | 0.00 | 0.00 | 75 | |
| 20260510042406 | 55 | 179 | 0.9 | 1.7 | 0.00 | 0.00 | 0.00 | 75 | |
| 20260510042307 | 55 | 177 | 0.0 | 1.7 | 0.00 | 0.00 | 0.00 | 76 | |
| 20260510042206 | 55 | 179 | 0.0 | 1.7 | 0.00 | 0.00 | 0.00 | 76 | |
| 20260510042106 | 55 | 176 | 0.0 | 1.7 | 0.00 | 0.00 | 0.00 | 76 | |
| 20260510042006 | 54 | 186 | 0.0 | 1.7 | 0.00 | 0.00 | 0.00 | 76 | |
| 20260510041906 | 54 | 173 | 0.0 | 1.7 | 0.00 | 0.00 | 0.00 | 76 | |
| 20260510041806 | 54 | 182 | 0.0 | 1.7 | 0.00 | 0.00 | 0.00 | 76 | |
| 20260510041706 | 54 | 187 | 0.0 | 1.7 | 0.00 | 0.00 | 0.00 | 76 | |
| 20260510041606 | 54 | 179 | 0.0 | 1.7 | 0.00 | 0.00 | 0.00 | 75 | |
| 20260510041506 | 54 | 172 | 0.0 | 1.7 | 0.00 | 0.00 | 0.00 | 75 | |
| 20260510041406 | 54 | 181 | 0.0 | 1.7 | 0.00 | 0.00 | 0.00 | 75 | |
| 20260510041306 | 55 | 179 | 0.0 | 1.7 | 0.00 | 0.00 | 0.00 | 75 | |
| 20260510041206 | 55 | 181 | 0.9 | 1.7 | 0.00 | 0.00 | 0.00 | 75 | |
| 20260510041106 | 55 | 179 | 0.0 | 1.7 | 0.00 | 0.00 | 0.00 | 75 | |
| 20260510041006 | 55 | 181 | 0.9 | 1.7 | 0.00 | 0.00 | 0.00 | 75 | |
| 20260510040906 | 55 | 172 | 0.0 | 1.7 | 0.00 | 0.00 | 0.00 | 75 | |
| 20260510040806 | 55 | 175 | 0.0 | 0.9 | 0.00 | 0.00 | 0.00 | 75 | |
| 20260510040706 | 55 | 176 | 0.0 | 0.9 | 0.00 | 0.00 | 0.00 | 75 | |
| 20260510040606 | 55 | 172 | 0.0 | 0.9 | 0.00 | 0.00 | 0.00 | 75 | |
| 20260510040506 | 55 | 175 | 0.0 | 0.9 | 0.00 | 0.00 | 0.00 | 75 | |
| 20260510040406 | 55 | 175 | 0.0 | 0.9 | 0.00 | 0.00 | 0.00 | 75 | |
| 20260510040306 | 55 | 171 | 0.0 | 0.9 | 0.00 | 0.00 | 0.00 | 76 | |
| 20260510040206 | 55 | 171 | 0.0 | 0.9 | 0.00 | 0.00 | 0.00 | 76 | |
| 20260510040106 | 55 | 171 | 0.0 | 0.9 | 0.00 | 0.00 | 0.00 | 76 | |
| 20260510040006 | 55 | 171 | 0.0 | 0.9 | 0.00 | 0.00 | 0.00 | 76 | |
| 20260510035906 | 55 | 171 | 0.0 | 0.9 | 0.00 | 0.00 | 0.00 | 76 | |
| 20260510035806 | 55 | 171 | 0.0 | 0.9 | 0.00 | 0.00 | 0.00 | 76 | |
| 20260510035706 | 55 | 171 | 0.0 | 0.9 | 0.00 | 0.00 | 0.00 | 76 | |
| 20260510035606 | 55 | 171 | 0.0 | 0.9 | 0.00 | 0.00 | 0.00 | 76 | |
| 20260510035506 | 55 | 163 | 0.0 | 0.9 | 0.00 | 0.00 | 0.00 | 76 | |
| 20260510035406 | 55 | 163 | 0.0 | 0.9 | 0.00 | 0.00 | 0.00 | 76 | |
| 20260510035306 | 55 | 163 | 0.0 | 0.9 | 0.00 | 0.00 | 0.00 | 76 | |
| 20260510035206 | 55 | 163 | 0.0 | 0.9 | 0.00 | 0.00 | 0.00 | 76 | |
| 20260510035106 | 55 | 163 | 0.0 | 0.9 | 0.00 | 0.00 | 0.00 | 76 | |
| 20260510035006 | 55 | 164 | 0.0 | 0.9 | 0.00 | 0.00 | 0.00 | 76 | |
| 20260510034906 | 55 | 165 | 0.0 | 0.9 | 0.00 | 0.00 | 0.00 | 76 | |
| 20260510034806 | 55 | 178 | 0.0 | 1.7 | 0.00 | 0.00 | 0.00 | 76 | |
| 20260510034706 | 55 | 178 | 0.0 | 1.7 | 0.00 | 0.00 | 0.00 | 76 | |
| 20260510034606 | 55 | 179 | 0.0 | 1.7 | 0.00 | 0.00 | 0.00 | 76 | |
| 20260510034506 | 55 | 177 | 0.0 | 1.7 | 0.00 | 0.00 | 0.00 | 76 | |
| 20260510034406 | 55 | 176 | 0.9 | 1.7 | 0.00 | 0.00 | 0.00 | 75 | |
| 20260510034306 | 55 | 176 | 0.0 | 1.7 | 0.00 | 0.00 | 0.00 | 75 | |
| 20260510034206 | 55 | 176 | 0.0 | 1.7 | 0.00 | 0.00 | 0.00 | 75 | |
| 20260510034106 | 55 | 176 | 0.0 | 1.7 | 0.00 | 0.00 | 0.00 | 75 | |
| 20260510034006 | 55 | 176 | 0.0 | 1.7 | 0.00 | 0.00 | 0.00 | 75 | |
| 20260510033906 | 55 | 174 | 0.0 | 1.7 | 0.00 | 0.00 | 0.00 | 74 | |
| 20260510033806 | 55 | 173 | 0.0 | 1.7 | 0.00 | 0.00 | 0.00 | 75 | |
| 20260510033706 | 55 | 176 | 0.0 | 1.7 | 0.00 | 0.00 | 0.00 | 75 | |
| 20260510033606 | 55 | 173 | 0.0 | 1.7 | 0.00 | 0.00 | 0.00 | 75 | |
| 20260510033506 | 55 | 178 | 0.0 | 1.7 | 0.00 | 0.00 | 0.00 | 75 | |
| 20260510033406 | 55 | 178 | 0.0 | 1.7 | 0.00 | 0.00 | 0.00 | 75 | |
| 20260510033306 | 55 | 177 | 0.0 | 1.7 | 0.00 | 0.00 | 0.00 | 75 | |
| 20260510033206 | 55 | 175 | 0.0 | 3.5 | 0.00 | 0.00 | 0.00 | 75 | |
| 20260510033106 | 55 | 174 | 0.9 | 3.5 | 0.00 | 0.00 | 0.00 | 75 | |
| 20260510033006 | 55 | 179 | 0.9 | 3.5 | 0.00 | 0.00 | 0.00 | 75 | |
| 20260510032906 | 55 | 181 | 0.9 | 3.5 | 0.00 | 0.00 | 0.00 | 75 | |
| 20260510032806 | 55 | 183 | 1.7 | 3.5 | 0.00 | 0.00 | 0.00 | 75 | |
| 20260510032706 | 55 | 185 | 1.7 | 3.5 | 0.00 | 0.00 | 0.00 | 75 | |
| 20260510032606 | 55 | 176 | 0.9 | 4.3 | 0.00 | 0.00 | 0.00 | 75 | |
| 20260510032506 | 55 | 175 | 1.7 | 4.3 | 0.00 | 0.00 | 0.00 | 75 | |
| 20260510032406 | 55 | 180 | 1.7 | 4.3 | 0.00 | 0.00 | 0.00 | 75 | |
| 20260510032306 | 55 | 178 | 1.7 | 4.3 | 0.00 | 0.00 | 0.00 | 76 | |
| 20260510032206 | 55 | 179 | 1.7 | 4.3 | 0.00 | 0.00 | 0.00 | 76 | |
| 20260510032106 | 55 | 173 | 1.7 | 3.5 | 0.00 | 0.00 | 0.00 | 76 | |
| 20260510032006 | 55 | 181 | 1.7 | 3.5 | 0.00 | 0.00 | 0.00 | 75 | |
| 20260510031906 | 55 | 176 | 2.6 | 3.5 | 0.00 | 0.00 | 0.00 | 75 | |
| 20260510031806 | 55 | 178 | 1.7 | 3.5 | 0.00 | 0.00 | 0.00 | 75 | |
| 20260510031706 | 55 | 187 | 1.7 | 3.5 | 0.00 | 0.00 | 0.00 | 74 | |
| 20260510031606 | 55 | 175 | 1.7 | 3.5 | 0.00 | 0.00 | 0.00 | 74 | |
| 20260510031506 | 55 | 171 | 1.7 | 3.5 | 0.00 | 0.00 | 0.00 | 74 | |
| 20260510031406 | 55 | 179 | 0.9 | 1.7 | 0.00 | 0.00 | 0.00 | 74 | |
| 20260510031306 | 55 | 180 | 0.0 | 1.7 | 0.00 | 0.00 | 0.00 | 74 | |
| 20260510031206 | 55 | 181 | 0.0 | 1.7 | 0.00 | 0.00 | 0.00 | 74 | |
| 20260510031106 | 56 | 180 | 0.0 | 1.7 | 0.00 | 0.00 | 0.00 | 74 | |
| 20260510031006 | 56 | 182 | 0.0 | 1.7 | 0.00 | 0.00 | 0.00 | 74 | |
| 20260510030906 | 56 | 183 | 0.0 | 0.9 | 0.00 | 0.00 | 0.00 | 74 | |
| 20260510030806 | 56 | 180 | 0.0 | 0.9 | 0.00 | 0.00 | 0.00 | 74 | |
| 20260510030706 | 56 | 181 | 0.0 | 0.9 | 0.00 | 0.00 | 0.00 | 74 | |
| 20260510030606 | 56 | 181 | 0.0 | 0.0 | 0.00 | 0.00 | 0.00 | 74 | |
| 20260510030506 | 56 | 181 | 0.0 | 0.9 | 0.00 | 0.00 | 0.00 | 74 | |
| 20260510030406 | 56 | 181 | 0.0 | 0.9 | 0.00 | 0.00 | 0.00 | 74 | |
| 20260510030306 | 56 | 181 | 0.0 | 0.9 | 0.00 | 0.00 | 0.00 | 74 | |
| 20260510030206 | 56 | 181 | 0.0 | 0.9 | 0.00 | 0.00 | 0.00 | 74 | |
| 20260510030106 | 56 | 180 | 0.0 | 0.9 | 0.00 | 0.00 | 0.00 | 74 | |
| 20260510030006 | 56 | 181 | 0.0 | 0.9 | 0.00 | 0.00 | 0.00 | 74 | |
| 20260510025906 | 56 | 181 | 0.0 | 0.9 | 0.00 | 0.00 | 0.00 | 74 | |
| 20260510025806 | 56 | 181 | 0.0 | 0.9 | 0.00 | 0.00 | 0.00 | 74 | |
| 20260510025706 | 56 | 181 | 0.0 | 1.7 | 0.00 | 0.00 | 0.00 | 73 | |
| 20260510025606 | 56 | 180 | 0.0 | 1.7 | 0.00 | 0.00 | 0.00 | 74 | |
| 20260510025506 | 56 | 181 | 0.0 | 1.7 | 0.00 | 0.00 | 0.00 | 74 | |
| 20260510025406 | 56 | 180 | 0.0 | 1.7 | 0.00 | 0.00 | 0.00 | 74 | |
| 20260510025306 | 56 | 180 | 0.0 | 1.7 | 0.00 | 0.00 | 0.00 | 74 | |
| 20260510025206 | 56 | 180 | 0.0 | 1.7 | 0.00 | 0.00 | 0.00 | 74 | |
| 20260510025106 | 56 | 180 | 0.0 | 0.9 | 0.00 | 0.00 | 0.00 | 74 | |
| 20260510025006 | 56 | 173 | 0.0 | 1.7 | 0.00 | 0.00 | 0.00 | 74 | |
| 20260510024906 | 56 | 177 | 0.0 | 1.7 | 0.00 | 0.00 | 0.00 | 74 | |
| 20260510024806 | 56 | 176 | 0.0 | 1.7 | 0.00 | 0.00 | 0.00 | 73 | |
| 20260510024706 | 56 | 172 | 0.0 | 1.7 | 0.00 | 0.00 | 0.00 | 73 | |
| 20260510024606 | 56 | 176 | 0.0 | 1.7 | 0.00 | 0.00 | 0.00 | 73 | |
| 20260510024506 | 56 | 176 | 0.0 | 1.7 | 0.00 | 0.00 | 0.00 | 73 | |
| 20260510024406 | 56 | 175 | 0.0 | 1.7 | 0.00 | 0.00 | 0.00 | 73 | |
| 20260510024306 | 56 | 176 | 0.0 | 1.7 | 0.00 | 0.00 | 0.00 | 73 | |
| 20260510024206 | 56 | 175 | 0.0 | 1.7 | 0.00 | 0.00 | 0.00 | 73 | |
| 20260510024106 | 56 | 175 | 0.0 | 1.7 | 0.00 | 0.00 | 0.00 | 74 | |
| 20260510024006 | 56 | 173 | 0.0 | 1.7 | 0.00 | 0.00 | 0.00 | 73 | |
| 20260510023906 | 56 | 175 | 0.0 | 1.7 | 0.00 | 0.00 | 0.00 | 73 | |
| 20260510023806 | 56 | 175 | 0.0 | 1.7 | 0.00 | 0.00 | 0.00 | 73 | |
| 20260510023706 | 56 | 165 | 0.0 | 1.7 | 0.00 | 0.00 | 0.00 | 73 | |
| 20260510023606 | 56 | 186 | 0.0 | 1.7 | 0.00 | 0.00 | 0.00 | 73 | |
| 20260510023506 | 56 | 179 | 0.9 | 1.7 | 0.00 | 0.00 | 0.00 | 73 | |
| 20260510023406 | 56 | 189 | 0.0 | 1.7 | 0.00 | 0.00 | 0.00 | 73 | |
| 20260510023306 | 56 | 176 | 0.9 | 1.7 | 0.00 | 0.00 | 0.00 | 72 | |
| 20260510023206 | 56 | 176 | 0.9 | 1.7 | 0.00 | 0.00 | 0.00 | 72 | |
| 20260510023106 | 56 | 179 | 0.9 | 1.7 | 0.00 | 0.00 | 0.00 | 72 | |
| 20260510023006 | 56 | 187 | 0.0 | 3.5 | 0.00 | 0.00 | 0.00 | 71 | |
| 20260510022906 | 57 | 184 | 0.0 | 3.5 | 0.00 | 0.00 | 0.00 | 72 | |
| 20260510022806 | 56 | 177 | 0.9 | 3.5 | 0.00 | 0.00 | 0.00 | 72 | |
| 20260510022706 | 56 | 185 | 0.9 | 3.5 | 0.00 | 0.00 | 0.00 | 72 | |
| 20260510022606 | 56 | 179 | 1.7 | 3.5 | 0.00 | 0.00 | 0.00 | 73 | |
| 20260510022506 | 56 | 179 | 0.9 | 1.7 | 0.00 | 0.00 | 0.00 | 73 | |
| 20260510022406 | 56 | 183 | 0.9 | 1.7 | 0.00 | 0.00 | 0.00 | 73 | |
| 20260510022307 | 56 | 187 | 0.0 | 1.7 | 0.00 | 0.00 | 0.00 | 73 | |
| 20260510022206 | 56 | 179 | 0.0 | 0.9 | 0.00 | 0.00 | 0.00 | 73 | |
| 20260510022106 | 56 | 177 | 0.0 | 0.9 | 0.00 | 0.00 | 0.00 | 73 | |
| 20260510022006 | 56 | 178 | 0.0 | 0.9 | 0.00 | 0.00 | 0.00 | 73 | |
| 20260510021906 | 56 | 178 | 0.0 | 0.9 | 0.00 | 0.00 | 0.00 | 73 | |
| 20260510021806 | 56 | 178 | 0.0 | 0.9 | 0.00 | 0.00 | 0.00 | 73 | |
| 20260510021706 | 56 | 178 | 0.0 | 0.9 | 0.00 | 0.00 | 0.00 | 73 | |
| 20260510021606 | 56 | 176 | 0.0 | 0.9 | 0.00 | 0.00 | 0.00 | 72 | |
| 20260510021506 | 56 | 178 | 0.0 | 0.9 | 0.00 | 0.00 | 0.00 | 72 | |
| 20260510021406 | 57 | 179 | 0.0 | 0.9 | 0.00 | 0.00 | 0.00 | 72 | |
| 20260510021306 | 57 | 178 | 0.0 | 0.9 | 0.00 | 0.00 | 0.00 | 72 | |
| 20260510021206 | 57 | 179 | 0.0 | 0.9 | 0.00 | 0.00 | 0.00 | 72 | |
| 20260510021106 | 57 | 179 | 0.0 | 0.9 | 0.00 | 0.00 | 0.00 | 72 | |
| 20260510021006 | 57 | 178 | 0.0 | 0.9 | 0.00 | 0.00 | 0.00 | 72 | |
| 20260510020906 | 57 | 179 | 0.0 | 0.9 | 0.00 | 0.00 | 0.00 | 72 | |
| 20260510020806 | 57 | 176 | 0.0 | 0.9 | 0.00 | 0.00 | 0.00 | 71 | |
| 20260510020706 | 57 | 178 | 0.0 | 0.9 | 0.00 | 0.00 | 0.00 | 71 | |
| 20260510020606 | 57 | 174 | 0.0 | 0.9 | 0.00 | 0.00 | 0.00 | 71 | |
| 20260510020506 | 57 | 176 | 0.0 | 0.9 | 0.00 | 0.00 | 0.00 | 71 | |
| 20260510020406 | 57 | 176 | 0.0 | 1.7 | 0.00 | 0.00 | 0.00 | 72 | |
| 20260510020306 | 57 | 177 | 0.0 | 1.7 | 0.00 | 0.00 | 0.00 | 71 | |
| 20260510020206 | 57 | 177 | 0.0 | 1.7 | 0.00 | 0.00 | 0.00 | 71 | |
| 20260510020106 | 57 | 177 | 0.0 | 1.7 | 0.00 | 0.00 | 0.00 | 71 | |
| 20260510020006 | 57 | 176 | 0.0 | 1.7 | 0.00 | 0.00 | 0.00 | 71 | |
| 20260510015906 | 57 | 185 | 0.0 | 1.7 | 0.00 | 0.00 | 0.00 | 71 | |
| 20260510015806 | 57 | 182 | 0.0 | 1.7 | 0.00 | 0.00 | 0.00 | 71 | |
| 20260510015706 | 57 | 183 | 0.0 | 1.7 | 0.00 | 0.00 | 0.00 | 71 | |
| 20260510015606 | 57 | 174 | 0.0 | 1.7 | 0.00 | 0.00 | 0.00 | 71 | |
| 20260510015506 | 57 | 177 | 0.0 | 1.7 | 0.00 | 0.00 | 0.00 | 71 | |
| 20260510015406 | 57 | 174 | 0.0 | 1.7 | 0.00 | 0.00 | 0.00 | 71 | |
| 20260510015306 | 57 | 187 | 0.0 | 1.7 | 0.00 | 0.00 | 0.00 | 71 | |
| 20260510015206 | 57 | 187 | 0.9 | 1.7 | 0.00 | 0.00 | 0.00 | 71 | |
| 20260510015106 | 57 | 182 | 0.9 | 3.5 | 0.00 | 0.00 | 0.00 | 71 | |
| 20260510015006 | 57 | 181 | 0.9 | 3.5 | 0.00 | 0.00 | 0.00 | 71 | |
| 20260510014906 | 57 | 176 | 0.9 | 3.5 | 0.00 | 0.00 | 0.00 | 71 | |
| 20260510014806 | 57 | 172 | 0.9 | 3.5 | 0.00 | 0.00 | 0.00 | 71 | |
| 20260510014706 | 57 | 175 | 1.7 | 3.5 | 0.00 | 0.00 | 0.00 | 71 | |
| 20260510014606 | 57 | 173 | 1.7 | 3.5 | 0.00 | 0.00 | 0.00 | 71 | |
| 20260510014506 | 57 | 179 | 0.9 | 1.7 | 0.00 | 0.00 | 0.00 | 71 | |
| 20260510014406 | 57 | 185 | 0.9 | 1.7 | 0.00 | 0.00 | 0.00 | 71 | |
| 20260510014306 | 57 | 176 | 0.0 | 1.7 | 0.00 | 0.00 | 0.00 | 70 | |
| 20260510014206 | 57 | 178 | 0.0 | 1.7 | 0.00 | 0.00 | 0.00 | 71 | |
| 20260510014106 | 57 | 179 | 0.0 | 1.7 | 0.00 | 0.00 | 0.00 | 71 | |
| 20260510014006 | 57 | 180 | 0.0 | 1.7 | 0.00 | 0.00 | 0.00 | 71 | |
| 20260510013906 | 57 | 180 | 0.9 | 1.7 | 0.00 | 0.00 | 0.00 | 71 | |
| 20260510013806 | 57 | 178 | 0.9 | 1.7 | 0.00 | 0.00 | 0.00 | 71 | |
| 20260510013706 | 57 | 177 | 0.0 | 1.7 | 0.00 | 0.00 | 0.00 | 71 | |
| 20260510013606 | 57 | 176 | 0.0 | 1.7 | 0.00 | 0.00 | 0.00 | 71 | |
| 20260510013506 | 57 | 176 | 0.0 | 1.7 | 0.00 | 0.00 | 0.00 | 71 | |
| 20260510013406 | 57 | 177 | 0.0 | 1.7 | 0.00 | 0.00 | 0.00 | 72 | |
| 20260510013306 | 57 | 177 | 0.9 | 1.7 | 0.00 | 0.00 | 0.00 | 72 | |
| 20260510013206 | 57 | 181 | 0.0 | 1.7 | 0.00 | 0.00 | 0.00 | 72 | |
| 20260510013106 | 57 | 178 | 0.0 | 0.9 | 0.00 | 0.00 | 0.00 | 71 | |
| 20260510013006 | 57 | 174 | 0.0 | 0.9 | 0.00 | 0.00 | 0.00 | 71 | |
| 20260510012906 | 57 | 178 | 0.0 | 0.9 | 0.00 | 0.00 | 0.00 | 71 | |
| 20260510012806 | 57 | 177 | 0.0 | 0.9 | 0.00 | 0.00 | 0.00 | 71 | |
| 20260510012706 | 57 | 177 | 0.0 | 0.9 | 0.00 | 0.00 | 0.00 | 71 | |
| 20260510012606 | 57 | 178 | 0.0 | 0.9 | 0.00 | 0.00 | 0.00 | 71 | |
| 20260510012506 | 57 | 178 | 0.0 | 0.9 | 0.00 | 0.00 | 0.00 | 71 | |
| 20260510012406 | 57 | 176 | 0.0 | 0.9 | 0.00 | 0.00 | 0.00 | 71 | |
| 20260510012307 | 57 | 175 | 0.0 | 0.9 | 0.00 | 0.00 | 0.00 | 71 | |
| 20260510012206 | 57 | 177 | 0.0 | 1.7 | 0.00 | 0.00 | 0.00 | 71 | |
| 20260510012106 | 57 | 177 | 0.0 | 1.7 | 0.00 | 0.00 | 0.00 | 71 | |
| 20260510012006 | 57 | 179 | 0.0 | 1.7 | 0.00 | 0.00 | 0.00 | 71 | |
| 20260510011906 | 57 | 177 | 0.0 | 1.7 | 0.00 | 0.00 | 0.00 | 71 | |
| 20260510011806 | 57 | 179 | 0.0 | 1.7 | 0.00 | 0.00 | 0.00 | 71 | |
| 20260510011706 | 57 | 175 | 0.0 | 1.7 | 0.00 | 0.00 | 0.00 | 71 | |
| 20260510011606 | 57 | 175 | 0.0 | 3.5 | 0.00 | 0.00 | 0.00 | 71 | |
| 20260510011506 | 57 | 179 | 0.0 | 3.5 | 0.00 | 0.00 | 0.00 | 71 | |
| 20260510011406 | 57 | 178 | 0.9 | 3.5 | 0.00 | 0.00 | 0.00 | 71 | |
| 20260510011306 | 57 | 170 | 0.9 | 3.5 | 0.00 | 0.00 | 0.00 | 70 | |
| 20260510011206 | 57 | 175 | 0.9 | 3.5 | 0.00 | 0.00 | 0.00 | 70 | |
| 20260510011106 | 57 | 174 | 1.7 | 3.5 | 0.00 | 0.00 | 0.00 | 71 | |
| 20260510011006 | 57 | 177 | 1.7 | 3.5 | 0.00 | 0.00 | 0.00 | 70 | |
| 20260510010906 | 57 | 179 | 1.7 | 3.5 | 0.00 | 0.00 | 0.00 | 70 | |
| 20260510010806 | 57 | 179 | 1.7 | 3.5 | 0.00 | 0.00 | 0.00 | 70 | |
| 20260510010706 | 57 | 174 | 2.6 | 3.5 | 0.00 | 0.00 | 0.00 | 70 | |
| 20260510010606 | 57 | 182 | 0.9 | 3.5 | 0.00 | 0.00 | 0.00 | 70 | |
| 20260510010506 | 58 | 178 | 0.9 | 1.7 | 0.00 | 0.00 | 0.00 | 70 | |
| 20260510010406 | 58 | 178 | 0.0 | 1.7 | 0.00 | 0.00 | 0.00 | 71 | |
| 20260510010306 | 58 | 177 | 0.0 | 0.9 | 0.00 | 0.00 | 0.00 | 71 | |
| 20260510010206 | 58 | 178 | 0.0 | 0.9 | 0.00 | 0.00 | 0.00 | 71 | |
| 20260510010106 | 58 | 179 | 0.0 | 0.9 | 0.00 | 0.00 | 0.00 | 71 | |
| 20260510010006 | 58 | 175 | 0.0 | 0.9 | 0.00 | 0.00 | 0.00 | 70 | |
| 20260510005906 | 58 | 177 | 0.0 | 0.9 | 0.00 | 0.00 | 0.00 | 70 | |
| 20260510005806 | 58 | 177 | 0.0 | 0.9 | 0.00 | 0.00 | 0.00 | 70 | |
| 20260510005706 | 58 | 176 | 0.0 | 0.9 | 0.00 | 0.00 | 0.00 | 69 | |
| 20260510005606 | 58 | 178 | 0.0 | 0.9 | 0.00 | 0.00 | 0.00 | 70 | |
| 20260510005506 | 58 | 177 | 0.0 | 0.9 | 0.00 | 0.00 | 0.00 | 69 | |
| 20260510005406 | 58 | 176 | 0.0 | 0.9 | 0.00 | 0.00 | 0.00 | 69 | |
| 20260510005306 | 58 | 174 | 0.0 | 0.9 | 0.00 | 0.00 | 0.00 | 68 | |
| 20260510005206 | 58 | 178 | 0.0 | 0.9 | 0.00 | 0.00 | 0.00 | 68 | |
| 20260510005106 | 58 | 176 | 0.0 | 0.9 | 0.00 | 0.00 | 0.00 | 68 | |
| 20260510005006 | 58 | 176 | 0.0 | 0.9 | 0.00 | 0.00 | 0.00 | 68 | |
| 20260510004906 | 58 | 178 | 0.0 | 0.9 | 0.00 | 0.00 | 0.00 | 68 | |
| 20260510004806 | 58 | 177 | 0.0 | 0.9 | 0.00 | 0.00 | 0.00 | 68 | |
| 20260510004706 | 58 | 177 | 0.0 | 0.9 | 0.00 | 0.00 | 0.00 | 68 | |
| 20260510004606 | 58 | 177 | 0.0 | 0.9 | 0.00 | 0.00 | 0.00 | 68 | |
| 20260510004506 | 58 | 177 | 0.0 | 0.9 | 0.00 | 0.00 | 0.00 | 68 | |
| 20260510004406 | 58 | 179 | 0.0 | 1.7 | 0.00 | 0.00 | 0.00 | 68 | |
| 20260510004306 | 59 | 177 | 0.0 | 1.7 | 0.00 | 0.00 | 0.00 | 67 | |
| 20260510004206 | 58 | 176 | 0.0 | 1.7 | 0.00 | 0.00 | 0.00 | 67 | |
| 20260510004106 | 59 | 177 | 0.0 | 1.7 | 0.00 | 0.00 | 0.00 | 67 | |
| 20260510004006 | 59 | 178 | 0.0 | 1.7 | 0.00 | 0.00 | 0.00 | 66 | |
| 20260510003906 | 58 | 182 | 0.0 | 1.7 | 0.00 | 0.00 | 0.00 | 66 | |
| 20260510003806 | 59 | 177 | 0.0 | 1.7 | 0.00 | 0.00 | 0.00 | 66 | |
| 20260510003706 | 59 | 177 | 0.9 | 1.7 | 0.00 | 0.00 | 0.00 | 66 | |
| 20260510003606 | 59 | 178 | 0.0 | 1.7 | 0.00 | 0.00 | 0.00 | 66 | |
| 20260510003506 | 59 | 174 | 0.0 | 1.7 | 0.00 | 0.00 | 0.00 | 66 | |
| 20260510003406 | 59 | 177 | 0.0 | 1.7 | 0.00 | 0.00 | 0.00 | 66 | |
| 20260510003306 | 59 | 176 | 0.0 | 1.7 | 0.00 | 0.00 | 0.00 | 66 | |
| 20260510003206 | 59 | 179 | 0.0 | 1.7 | 0.00 | 0.00 | 0.00 | 66 | |
| 20260510003106 | 59 | 179 | 0.9 | 1.7 | 0.00 | 0.00 | 0.00 | 66 | |
| 20260510003006 | 59 | 184 | 0.0 | 1.7 | 0.00 | 0.00 | 0.00 | 66 | |
| 20260510002906 | 59 | 188 | 0.0 | 1.7 | 0.00 | 0.00 | 0.00 | 67 | |
| 20260510002806 | 59 | 176 | 0.9 | 1.7 | 0.00 | 0.00 | 0.00 | 66 | |
| 20260510002706 | 59 | 177 | 0.0 | 1.7 | 0.00 | 0.00 | 0.00 | 66 | |
| 20260510002606 | 58 | 176 | 0.0 | 1.7 | 0.00 | 0.00 | 0.00 | 67 | |
| 20260510002506 | 58 | 174 | 0.0 | 1.7 | 0.00 | 0.00 | 0.00 | 67 | |
| 20260510002406 | 58 | 183 | 0.0 | 1.7 | 0.00 | 0.00 | 0.00 | 67 | |
| 20260510002307 | 58 | 187 | 0.0 | 1.7 | 0.00 | 0.00 | 0.00 | 67 | |
| 20260510002206 | 58 | 179 | 0.0 | 1.7 | 0.00 | 0.00 | 0.00 | 67 | |
| 20260510002106 | 58 | 184 | 0.0 | 1.7 | 0.00 | 0.00 | 0.00 | 67 | |
| 20260510002006 | 58 | 185 | 0.0 | 1.7 | 0.00 | 0.00 | 0.00 | 67 | |
| 20260510001906 | 58 | 182 | 0.0 | 0.9 | 0.00 | 0.00 | 0.00 | 67 | |
| 20260510001806 | 58 | 182 | 0.0 | 0.9 | 0.00 | 0.00 | 0.00 | 67 | |
| 20260510001706 | 58 | 176 | 0.0 | 0.9 | 0.00 | 0.00 | 0.00 | 67 | |
| 20260510001606 | 58 | 176 | 0.0 | 0.9 | 0.00 | 0.00 | 0.00 | 67 | |
| 20260510001506 | 58 | 183 | 0.0 | 0.9 | 0.00 | 0.00 | 0.00 | 67 | |
| 20260510001406 | 58 | 179 | 0.0 | 0.9 | 0.00 | 0.00 | 0.00 | 67 | |
| 20260510001306 | 58 | 169 | 0.0 | 0.9 | 0.00 | 0.00 | 0.00 | 67 | |
| 20260510001206 | 58 | 173 | 0.0 | 0.9 | 0.00 | 0.00 | 0.00 | 67 | |
| 20260510001106 | 58 | 186 | 0.0 | 0.9 | 0.00 | 0.00 | 0.00 | 67 | |
| 20260510001006 | 58 | 184 | 0.0 | 1.7 | 0.00 | 0.00 | 0.00 | 68 | |
| 20260510000906 | 58 | 187 | 0.0 | 1.7 | 0.00 | 0.00 | 0.00 | 68 | |
| 20260510000806 | 58 | 186 | 0.0 | 3.5 | 0.00 | 0.00 | 0.00 | 68 | |
| 20260510000706 | 58 | 190 | 0.0 | 3.5 | 0.00 | 0.00 | 0.00 | 68 | |
| 20260510000606 | 58 | 187 | 0.0 | 3.5 | 0.00 | 0.00 | 0.00 | 68 | |
| 20260510000506 | 58 | 185 | 0.0 | 3.5 | 0.00 | 0.00 | 0.00 | 68 | |
| 20260510000406 | 58 | 174 | 0.9 | 3.5 | 0.00 | 0.00 | 0.00 | 68 | |
| 20260510000306 | 58 | 178 | 0.0 | 1.7 | 0.00 | 0.00 | 0.00 | 68 | |
| 20260510000206 | 58 | 174 | 0.0 | 1.7 | 0.00 | 0.00 | 0.00 | 68 | |
| 20260510000106 | 58 | 178 | 0.0 | 1.7 | 0.00 | 0.00 | 0.00 | 68 | |
| 20260510000006 | 58 | 187 | 0.9 | 1.7 | 0.00 | 0.00 | 0.00 | 68 | |
| 20260509235906 | 58 | 185 | 0.0 | 1.7 | 0.00 | 0.00 | 0.00 | 69 | |
| 20260509235806 | 58 | 186 | 0.0 | 1.7 | 0.00 | 0.00 | 0.00 | 69 | |
| 20260509235706 | 58 | 186 | 0.0 | 1.7 | 0.00 | 0.00 | 0.00 | 69 | |
| 20260509235606 | 58 | 179 | 0.0 | 1.7 | 0.00 | 0.00 | 0.00 | 69 | |
| 20260509235506 | 58 | 171 | 0.0 | 1.7 | 0.00 | 0.00 | 0.00 | 69 | |
| 20260509235406 | 58 | 175 | 0.0 | 1.7 | 0.00 | 0.00 | 0.00 | 69 | |
| 20260509235307 | 58 | 171 | 0.0 | 3.5 | 0.00 | 0.00 | 0.00 | 68 | |
| 20260509235206 | 58 | 169 | 0.0 | 3.5 | 0.00 | 0.00 | 0.00 | 68 | |
| 20260509235106 | 58 | 168 | 0.9 | 3.5 | 0.00 | 0.00 | 0.00 | 69 | |
| 20260509235006 | 58 | 176 | 0.9 | 3.5 | 0.00 | 0.00 | 0.00 | 69 | |
| 20260509234906 | 58 | 174 | 1.7 | 3.5 | 0.00 | 0.00 | 0.00 | 68 | |
| 20260509234806 | 58 | 176 | 0.9 | 3.5 | 0.00 | 0.00 | 0.00 | 68 | |
| 20260509234706 | 58 | 186 | 0.9 | 1.7 | 0.00 | 0.00 | 0.00 | 68 | |
| 20260509234606 | 58 | 169 | 0.9 | 1.7 | 0.00 | 0.00 | 0.00 | 68 | |
| 20260509234506 | 58 | 185 | 0.0 | 1.7 | 0.00 | 0.00 | 0.00 | 68 | |
| 20260509234406 | 58 | 185 | 0.0 | 1.7 | 0.00 | 0.00 | 0.00 | 68 | |
| 20260509234306 | 58 | 176 | 0.9 | 1.7 | 0.00 | 0.00 | 0.00 | 68 | |
| 20260509234206 | 58 | 183 | 0.0 | 1.7 | 0.00 | 0.00 | 0.00 | 68 | |
| 20260509234106 | 58 | 176 | 0.0 | 3.5 | 0.00 | 0.00 | 0.00 | 68 | |
| 20260509234006 | 58 | 177 | 0.9 | 3.5 | 0.00 | 0.00 | 0.00 | 68 | |
| 20260509233906 | 58 | 173 | 0.9 | 3.5 | 0.00 | 0.00 | 0.00 | 68 | |
| 20260509233806 | 58 | 175 | 0.9 | 3.5 | 0.00 | 0.00 | 0.00 | 68 | |
| 20260509233706 | 58 | 176 | 1.7 | 3.5 | 0.00 | 0.00 | 0.00 | 67 | |
| 20260509233606 | 58 | 185 | 0.9 | 3.5 | 0.00 | 0.00 | 0.00 | 67 | |
| 20260509233506 | 58 | 173 | 1.7 | 3.5 | 0.00 | 0.00 | 0.00 | 67 | |
| 20260509233406 | 58 | 179 | 1.7 | 3.5 | 0.00 | 0.00 | 0.00 | 67 | |
| 20260509233306 | 58 | 177 | 2.6 | 3.5 | 0.00 | 0.00 | 0.00 | 67 | |
| 20260509233206 | 58 | 176 | 1.7 | 3.5 | 0.00 | 0.00 | 0.00 | 67 | |
| 20260509233106 | 58 | 179 | 0.9 | 3.5 | 0.00 | 0.00 | 0.00 | 67 | |
| 20260509233006 | 58 | 178 | 0.9 | 3.5 | 0.00 | 0.00 | 0.00 | 67 | |
| 20260509232906 | 58 | 175 | 0.9 | 3.5 | 0.00 | 0.00 | 0.00 | 67 | |
| 20260509232806 | 58 | 174 | 0.9 | 3.5 | 0.00 | 0.00 | 0.00 | 67 | |
| 20260509232706 | 58 | 178 | 0.9 | 3.5 | 0.00 | 0.00 | 0.00 | 67 | |
| 20260509232606 | 58 | 176 | 0.9 | 3.5 | 0.00 | 0.00 | 0.00 | 67 | |
| 20260509232506 | 58 | 176 | 0.9 | 3.5 | 0.00 | 0.00 | 0.00 | 66 | |
| 20260509232406 | 58 | 186 | 0.9 | 1.7 | 0.00 | 0.00 | 0.00 | 67 | |
| 20260509232306 | 58 | 178 | 0.9 | 3.5 | 0.00 | 0.00 | 0.00 | 66 | |
| 20260509232206 | 58 | 176 | 0.9 | 3.5 | 0.00 | 0.00 | 0.00 | 67 | |
| 20260509232106 | 58 | 185 | 0.9 | 3.5 | 0.00 | 0.00 | 0.00 | 66 | |
| 20260509232006 | 58 | 175 | 1.7 | 3.5 | 0.00 | 0.00 | 0.00 | 67 | |
| 20260509231906 | 58 | 172 | 1.7 | 3.5 | 0.00 | 0.00 | 0.00 | 66 | |
| 20260509231806 | 58 | 179 | 1.7 | 3.5 | 0.00 | 0.00 | 0.00 | 67 | |
| 20260509231706 | 58 | 185 | 0.9 | 3.5 | 0.00 | 0.00 | 0.00 | 66 | |
| 20260509231606 | 58 | 183 | 0.9 | 3.5 | 0.00 | 0.00 | 0.00 | 67 | |
| 20260509231506 | 58 | 179 | 1.7 | 3.5 | 0.00 | 0.00 | 0.00 | 66 | |
| 20260509231406 | 58 | 186 | 1.7 | 3.5 | 0.00 | 0.00 | 0.00 | 66 | |
| 20260509231306 | 58 | 175 | 1.7 | 3.5 | 0.00 | 0.00 | 0.00 | 66 | |
| 20260509231206 | 58 | 185 | 1.7 | 3.5 | 0.00 | 0.00 | 0.00 | 67 | |
| 20260509231106 | 58 | 176 | 2.6 | 3.5 | 0.00 | 0.00 | 0.00 | 67 | |
| 20260509231006 | 58 | 175 | 2.6 | 3.5 | 0.00 | 0.00 | 0.00 | 66 | |
| 20260509230906 | 58 | 169 | 1.7 | 3.5 | 0.00 | 0.00 | 0.00 | 66 | |
| 20260509230806 | 58 | 184 | 1.7 | 1.7 | 0.00 | 0.00 | 0.00 | 66 | |
| 20260509230706 | 58 | 183 | 0.9 | 1.7 | 0.00 | 0.00 | 0.00 | 67 | |
| 20260509230606 | 58 | 177 | 0.9 | 4.3 | 0.00 | 0.00 | 0.00 | 66 | |
| 20260509230506 | 58 | 174 | 0.0 | 4.3 | 0.00 | 0.00 | 0.00 | 67 | |
| 20260509230406 | 58 | 177 | 0.0 | 4.3 | 0.00 | 0.00 | 0.00 | 67 | |
| 20260509230306 | 58 | 172 | 0.0 | 4.3 | 0.00 | 0.00 | 0.00 | 67 | |
| 20260509230206 | 58 | 186 | 1.7 | 4.3 | 0.00 | 0.00 | 0.00 | 67 | |
| 20260509230106 | 58 | 182 | 1.7 | 3.5 | 0.00 | 0.00 | 0.00 | 67 | |
| 20260509230006 | 58 | 187 | 1.7 | 3.5 | 0.00 | 0.00 | 0.00 | 68 | |
| 20260509225906 | 58 | 173 | 1.7 | 3.5 | 0.00 | 0.00 | 0.00 | 68 | |
| 20260509225806 | 58 | 172 | 1.7 | 3.5 | 0.00 | 0.00 | 0.00 | 68 | |
| 20260509225706 | 58 | 177 | 1.7 | 3.5 | 0.00 | 0.00 | 0.00 | 69 | |
| 20260509225606 | 58 | 174 | 1.7 | 3.5 | 0.00 | 0.00 | 0.00 | 69 | |
| 20260509225506 | 58 | 183 | 1.7 | 3.5 | 0.00 | 0.00 | 0.00 | 69 | |
| 20260509225406 | 58 | 172 | 1.7 | 3.5 | 0.00 | 0.00 | 0.00 | 69 | |
| 20260509225306 | 58 | 173 | 1.7 | 4.3 | 0.00 | 0.00 | 0.00 | 69 | |
| 20260509225206 | 58 | 173 | 1.7 | 4.3 | 0.00 | 0.00 | 0.00 | 69 | |
| 20260509225106 | 58 | 185 | 1.7 | 4.3 | 0.00 | 0.00 | 0.00 | 69 | |
| 20260509225006 | 58 | 174 | 2.6 | 4.3 | 0.00 | 0.00 | 0.00 | 69 | |
| 20260509224906 | 58 | 173 | 2.6 | 4.3 | 0.00 | 0.00 | 0.00 | 69 | |
| 20260509224806 | 58 | 186 | 1.7 | 3.5 | 0.00 | 0.00 | 0.00 | 69 | |
| 20260509224706 | 58 | 173 | 1.7 | 3.5 | 0.00 | 0.00 | 0.00 | 69 | |
| 20260509224606 | 58 | 177 | 2.6 | 3.5 | 0.00 | 0.00 | 0.00 | 69 | |
| 20260509224506 | 58 | 186 | 1.7 | 3.5 | 0.00 | 0.00 | 0.00 | 69 | |
| 20260509224406 | 58 | 185 | 1.7 | 3.5 | 0.00 | 0.00 | 0.00 | 69 | |
| 20260509224306 | 58 | 187 | 1.7 | 3.5 | 0.00 | 0.00 | 0.00 | 69 | |
| 20260509224206 | 58 | 182 | 1.7 | 3.5 | 0.00 | 0.00 | 0.00 | 68 | |
| 20260509224106 | 58 | 172 | 1.7 | 3.5 | 0.00 | 0.00 | 0.00 | 69 | |
| 20260509224006 | 58 | 180 | 2.6 | 3.5 | 0.00 | 0.00 | 0.00 | 68 | |
| 20260509223906 | 58 | 173 | 1.7 | 3.5 | 0.00 | 0.00 | 0.00 | 68 | |
| 20260509223806 | 58 | 180 | 0.9 | 3.5 | 0.00 | 0.00 | 0.00 | 68 | |
| 20260509223706 | 58 | 179 | 1.7 | 3.5 | 0.00 | 0.00 | 0.00 | 68 | |
| 20260509223606 | 58 | 185 | 0.9 | 3.5 | 0.00 | 0.00 | 0.00 | 67 | |
| 20260509223506 | 58 | 185 | 0.9 | 3.5 | 0.00 | 0.00 | 0.00 | 67 | |
| 20260509223406 | 59 | 173 | 0.9 | 3.5 | 0.00 | 0.00 | 0.00 | 67 | |
| 20260509223306 | 59 | 179 | 0.9 | 3.5 | 0.00 | 0.00 | 0.00 | 67 | |
| 20260509223206 | 59 | 174 | 0.9 | 3.5 | 0.00 | 0.00 | 0.00 | 67 | |
| 20260509223106 | 59 | 172 | 1.7 | 3.5 | 0.00 | 0.00 | 0.00 | 67 | |
| 20260509223006 | 59 | 180 | 1.7 | 3.5 | 0.00 | 0.00 | 0.00 | 66 | |
| 20260509222906 | 59 | 176 | 0.9 | 1.7 | 0.00 | 0.00 | 0.00 | 66 | |
| 20260509222806 | 59 | 172 | 0.0 | 1.7 | 0.00 | 0.00 | 0.00 | 65 | |
| 20260509222706 | 59 | 173 | 0.0 | 0.9 | 0.00 | 0.00 | 0.00 | 64 | |
| 20260509222606 | 59 | 176 | 0.0 | 0.9 | 0.00 | 0.00 | 0.00 | 65 | |
| 20260509222506 | 59 | 175 | 0.0 | 0.9 | 0.00 | 0.00 | 0.00 | 64 | |
| 20260509222406 | 59 | 174 | 0.0 | 1.7 | 0.00 | 0.00 | 0.00 | 65 | |
| 20260509222307 | 59 | 174 | 0.0 | 1.7 | 0.00 | 0.00 | 0.00 | 66 | |
| 20260509222206 | 59 | 174 | 0.0 | 1.7 | 0.00 | 0.00 | 0.00 | 66 | |
| 20260509222106 | 59 | 175 | 0.0 | 1.7 | 0.00 | 0.00 | 0.00 | 67 | |
| 20260509222006 | 59 | 175 | 0.0 | 1.7 | 0.00 | 0.00 | 0.00 | 67 | |
| 20260509221906 | 58 | 168 | 0.0 | 1.7 | 0.00 | 0.00 | 0.00 | 68 | |
| 20260509221806 | 58 | 167 | 0.0 | 1.7 | 0.00 | 0.00 | 0.00 | 69 | |
| 20260509221706 | 58 | 167 | 0.0 | 1.7 | 0.00 | 0.00 | 0.00 | 70 | |
| 20260509221606 | 58 | 167 | 0.0 | 1.7 | 0.00 | 0.00 | 0.00 | 70 | |
| 20260509221506 | 58 | 167 | 0.9 | 1.7 | 0.00 | 0.00 | 0.00 | 70 | |
| 20260509221406 | 58 | 166 | 0.0 | 1.7 | 0.00 | 0.00 | 0.00 | 70 | |
| 20260509221306 | 58 | 164 | 0.0 | 1.7 | 0.00 | 0.00 | 0.00 | 69 | |
| 20260509221206 | 58 | 164 | 0.0 | 1.7 | 0.00 | 0.00 | 0.00 | 68 | |
| 20260509221106 | 59 | 164 | 0.0 | 1.7 | 0.00 | 0.00 | 0.00 | 68 | |
| 20260509221006 | 59 | 163 | 0.0 | 0.9 | 0.00 | 0.00 | 0.00 | 68 | |
| 20260509220906 | 59 | 152 | 0.0 | 0.9 | 0.00 | 0.00 | 0.00 | 68 | |
| 20260509220806 | 59 | 153 | 0.0 | 0.9 | 0.00 | 0.00 | 0.00 | 68 | |
| 20260509220706 | 59 | 152 | 0.0 | 0.9 | 0.00 | 0.00 | 0.00 | 68 | |
| 20260509220606 | 59 | 152 | 0.0 | 0.9 | 0.00 | 0.00 | 0.00 | 69 | |
| 20260509220506 | 59 | 153 | 0.0 | 0.9 | 0.00 | 0.00 | 0.00 | 68 | |
| 20260509220406 | 59 | 153 | 0.0 | 0.9 | 0.00 | 0.00 | 0.00 | 68 | |
| 20260509220306 | 59 | 153 | 0.0 | 0.9 | 0.00 | 0.00 | 0.00 | 68 | |
| 20260509220206 | 59 | 152 | 0.0 | 0.9 | 0.00 | 0.00 | 0.00 | 68 | |
| 20260509220106 | 59 | 152 | 0.0 | 0.9 | 0.00 | 0.00 | 0.00 | 68 | |
| 20260509220006 | 59 | 149 | 0.0 | 0.9 | 0.00 | 0.00 | 0.00 | 67 | |
| 20260509215906 | 59 | 148 | 0.0 | 0.9 | 0.00 | 0.00 | 0.00 | 68 | |
| 20260509215806 | 59 | 149 | 0.0 | 0.9 | 0.00 | 0.00 | 0.00 | 68 | |
| 20260509215706 | 59 | 148 | 0.0 | 0.9 | 0.00 | 0.00 | 0.00 | 68 | |
| 20260509215606 | 59 | 149 | 0.0 | 0.9 | 0.00 | 0.00 | 0.00 | 68 | |
| 20260509215506 | 59 | 148 | 0.0 | 0.9 | 0.00 | 0.00 | 0.00 | 68 | |
| 20260509215406 | 59 | 148 | 0.0 | 0.9 | 0.00 | 0.00 | 0.00 | 68 | |
| 20260509215306 | 59 | 148 | 0.0 | 0.9 | 0.00 | 0.00 | 0.00 | 68 | |
| 20260509215206 | 59 | 148 | 0.0 | 0.9 | 0.00 | 0.00 | 0.00 | 68 | |
| 20260509215106 | 59 | 148 | 0.0 | 0.9 | 0.00 | 0.00 | 0.00 | 67 | |
| 20260509215006 | 59 | 148 | 0.0 | 0.9 | 0.00 | 0.00 | 0.00 | 67 | |
| 20260509214906 | 59 | 148 | 0.0 | 0.9 | 0.00 | 0.00 | 0.00 | 66 | |
| 20260509214806 | 59 | 149 | 0.0 | 0.9 | 0.00 | 0.00 | 0.00 | 66 | |
| 20260509214706 | 59 | 147 | 0.0 | 0.9 | 0.00 | 0.00 | 0.00 | 65 | |
| 20260509214606 | 59 | 151 | 0.0 | 0.9 | 0.00 | 0.00 | 0.00 | 65 | |
| 20260509214506 | 59 | 151 | 0.0 | 0.9 | 0.00 | 0.00 | 0.00 | 64 | |
| 20260509214406 | 59 | 151 | 0.0 | 0.9 | 0.00 | 0.00 | 0.00 | 64 | |
| 20260509214306 | 59 | 151 | 0.0 | 0.9 | 0.00 | 0.00 | 0.00 | 64 | |
| 20260509214206 | 60 | 151 | 0.0 | 0.9 | 0.00 | 0.00 | 0.00 | 64 | |
| 20260509214106 | 60 | 151 | 0.0 | 1.7 | 0.00 | 0.00 | 0.00 | 64 | |
| 20260509214006 | 60 | 151 | 0.0 | 1.7 | 0.00 | 0.00 | 0.00 | 64 | |
| 20260509213906 | 60 | 151 | 0.0 | 1.7 | 0.00 | 0.00 | 0.00 | 63 | |
| 20260509213806 | 60 | 143 | 0.0 | 1.7 | 0.00 | 0.00 | 0.00 | 63 | |
| 20260509213706 | 60 | 143 | 0.0 | 1.7 | 0.00 | 0.00 | 0.00 | 63 | |
| 20260509213606 | 60 | 153 | 0.0 | 1.7 | 0.00 | 0.00 | 0.00 | 63 | |
| 20260509213506 | 60 | 153 | 0.0 | 1.7 | 0.00 | 0.00 | 0.00 | 63 | |
| 20260509213406 | 60 | 151 | 0.0 | 1.7 | 0.00 | 0.00 | 0.00 | 63 | |
| 20260509213306 | 60 | 138 | 0.0 | 1.7 | 0.00 | 0.00 | 0.00 | 63 | |
| 20260509213206 | 60 | 138 | 0.0 | 1.7 | 0.00 | 0.00 | 0.00 | 63 | |
| 20260509213106 | 60 | 141 | 0.0 | 1.7 | 0.00 | 0.00 | 0.00 | 63 | |
| 20260509213006 | 60 | 157 | 0.0 | 1.7 | 0.00 | 0.00 | 0.00 | 63 | |
| 20260509212906 | 60 | 156 | 0.0 | 1.7 | 0.00 | 0.00 | 0.00 | 62 | |
| 20260509212806 | 60 | 148 | 0.0 | 1.7 | 0.00 | 0.00 | 0.00 | 62 | |
| 20260509212706 | 60 | 136 | 0.9 | 1.7 | 0.00 | 0.00 | 0.00 | 62 | |
| 20260509212606 | 60 | 158 | 0.0 | 0.9 | 0.00 | 0.00 | 0.00 | 62 | |
| 20260509212506 | 61 | 161 | 0.0 | 0.9 | 0.00 | 0.00 | 0.00 | 61 | |
| 20260509212406 | 61 | 161 | 0.0 | 0.9 | 0.00 | 0.00 | 0.00 | 61 | |
| 20260509212306 | 61 | 161 | 0.0 | 0.9 | 0.00 | 0.00 | 0.00 | 61 | |
| 20260509212206 | 61 | 157 | 0.0 | 0.9 | 0.00 | 0.00 | 0.00 | 60 | |
| 20260509212106 | 61 | 152 | 0.0 | 1.7 | 0.00 | 0.00 | 0.00 | 60 | |
| 20260509212006 | 61 | 152 | 0.0 | 1.7 | 0.00 | 0.00 | 0.00 | 59 | |
| 20260509211906 | 61 | 152 | 0.0 | 1.7 | 0.00 | 0.00 | 0.00 | 59 | |
| 20260509211806 | 61 | 152 | 0.0 | 1.7 | 0.00 | 0.00 | 0.00 | 60 | |
| 20260509211706 | 61 | 151 | 0.0 | 1.7 | 0.00 | 0.00 | 0.00 | 60 | |
| 20260509211606 | 61 | 151 | 0.0 | 0.9 | 0.00 | 0.00 | 0.00 | 59 | |
| 20260509211506 | 61 | 152 | 0.0 | 0.9 | 0.00 | 0.00 | 0.00 | 58 | |
| 20260509211406 | 61 | 152 | 0.0 | 0.9 | 0.00 | 0.00 | 0.00 | 59 | |
| 20260509211306 | 61 | 152 | 0.0 | 0.9 | 0.00 | 0.00 | 0.00 | 58 | |
| 20260509211206 | 61 | 152 | 0.0 | 0.9 | 0.00 | 0.00 | 0.00 | 58 | |
| 20260509211106 | 61 | 152 | 0.0 | 0.9 | 0.00 | 0.00 | 0.00 | 58 | |
| 20260509211006 | 61 | 152 | 0.0 | 0.9 | 0.00 | 0.00 | 0.00 | 58 | |
| 20260509210906 | 61 | 152 | 0.0 | 0.9 | 0.00 | 0.00 | 0.00 | 58 | |
| 20260509210806 | 61 | 152 | 0.0 | 0.9 | 0.00 | 0.00 | 0.00 | 58 | |
| 20260509210706 | 61 | 152 | 0.0 | 1.7 | 0.00 | 0.00 | 0.00 | 58 | |
| 20260509210606 | 61 | 152 | 0.0 | 1.7 | 0.00 | 0.00 | 0.00 | 59 | |
| 20260509210506 | 61 | 152 | 0.0 | 1.7 | 0.00 | 0.00 | 0.00 | 58 | |
| 20260509210406 | 61 | 152 | 0.0 | 1.7 | 0.00 | 0.00 | 0.00 | 57 | |
| 20260509210306 | 61 | 151 | 0.0 | 1.7 | 0.00 | 0.00 | 0.00 | 58 | |
| 20260509210206 | 62 | 159 | 0.0 | 0.9 | 0.00 | 0.00 | 0.00 | 57 | |
| 20260509210106 | 62 | 159 | 0.0 | 0.9 | 0.00 | 0.00 | 0.00 | 57 | |
| 20260509210006 | 62 | 159 | 0.0 | 0.9 | 0.00 | 0.00 | 0.00 | 57 | |
| 20260509205906 | 62 | 159 | 0.0 | 0.9 | 0.00 | 0.00 | 0.00 | 57 | |
| 20260509205806 | 62 | 159 | 0.0 | 0.9 | 0.00 | 0.00 | 0.00 | 56 | |
| 20260509205706 | 62 | 160 | 0.0 | 0.9 | 0.00 | 0.00 | 0.00 | 56 | |
| 20260509205606 | 62 | 159 | 0.0 | 0.9 | 0.00 | 0.00 | 0.00 | 56 | |
| 20260509205506 | 62 | 159 | 0.0 | 0.9 | 0.00 | 0.00 | 0.00 | 56 | |
| 20260509205406 | 62 | 159 | 0.0 | 0.9 | 0.00 | 0.00 | 0.00 | 56 | |
| 20260509205307 | 62 | 159 | 0.0 | 0.9 | 0.00 | 0.00 | 0.00 | 55 | |
| 20260509205206 | 62 | 159 | 0.0 | 0.9 | 0.00 | 0.00 | 0.00 | 56 | |
| 20260509205106 | 62 | 160 | 0.0 | 0.9 | 0.00 | 0.00 | 0.00 | 55 | |
| 20260509205006 | 62 | 159 | 0.0 | 0.9 | 0.00 | 0.00 | 0.00 | 55 | |
| 20260509204906 | 62 | 159 | 0.0 | 0.9 | 0.00 | 0.00 | 0.00 | 55 | |
| 20260509204806 | 62 | 160 | 0.0 | 0.9 | 0.00 | 0.00 | 0.00 | 55 | |
| 20260509204706 | 63 | 159 | 0.0 | 0.9 | 0.00 | 0.00 | 0.00 | 55 | |
| 20260509204606 | 62 | 159 | 0.0 | 0.9 | 0.00 | 0.00 | 0.00 | 55 | |
| 20260509204506 | 62 | 159 | 0.0 | 0.9 | 0.00 | 0.00 | 0.00 | 55 | |
| 20260509204406 | 62 | 159 | 0.0 | 0.9 | 0.00 | 0.00 | 0.00 | 55 | |
| 20260509204306 | 62 | 159 | 0.0 | 0.9 | 0.00 | 0.00 | 0.00 | 55 | |
| 20260509204206 | 62 | 159 | 0.0 | 0.9 | 0.00 | 0.00 | 0.00 | 55 | |
| 20260509204106 | 62 | 159 | 0.0 | 0.9 | 0.00 | 0.00 | 0.00 | 54 | |
| 20260509204006 | 62 | 159 | 0.0 | 0.9 | 0.00 | 0.00 | 0.00 | 54 | |
| 20260509203906 | 63 | 159 | 0.0 | 0.9 | 0.00 | 0.00 | 0.00 | 54 | |
| 20260509203806 | 63 | 158 | 0.0 | 0.9 | 0.00 | 0.00 | 0.00 | 54 | |
| 20260509203706 | 63 | 158 | 0.0 | 0.9 | 0.00 | 0.00 | 0.00 | 53 | |
| 20260509203606 | 63 | 158 | 0.0 | 0.9 | 0.00 | 0.00 | 0.00 | 53 | |
| 20260509203506 | 63 | 158 | 0.0 | 0.9 | 0.00 | 0.00 | 0.00 | 53 | |
| 20260509203406 | 63 | 158 | 0.0 | 0.9 | 0.00 | 0.00 | 0.00 | 53 | |
| 20260509203306 | 63 | 158 | 0.0 | 0.9 | 0.00 | 0.00 | 0.00 | 52 | |
| 20260509203206 | 63 | 158 | 0.0 | 0.9 | 0.00 | 0.00 | 0.00 | 52 | |
| 20260509203106 | 63 | 158 | 0.0 | 0.9 | 0.00 | 0.00 | 0.00 | 52 | |
| 20260509203006 | 63 | 169 | 0.0 | 0.9 | 0.00 | 0.00 | 0.00 | 52 | |
| 20260509202906 | 63 | 169 | 0.0 | 0.9 | 0.00 | 0.00 | 0.00 | 52 | |
| 20260509202806 | 63 | 169 | 0.0 | 0.9 | 0.00 | 0.00 | 0.00 | 53 | |
| 20260509202706 | 63 | 169 | 0.0 | 0.9 | 0.00 | 0.00 | 0.00 | 53 | |
| 20260509202606 | 63 | 169 | 0.0 | 0.9 | 0.00 | 0.00 | 0.00 | 53 | |
| 20260509202506 | 63 | 169 | 0.0 | 0.9 | 0.00 | 0.00 | 0.00 | 53 | |
| 20260509202406 | 63 | 169 | 0.0 | 0.9 | 0.00 | 0.00 | 0.00 | 53 | |
| 20260509202307 | 63 | 169 | 0.0 | 0.9 | 0.00 | 0.00 | 0.00 | 53 | |
| 20260509202206 | 63 | 169 | 0.0 | 0.9 | 0.00 | 0.00 | 0.00 | 53 | |
| 20260509202106 | 63 | 169 | 0.0 | 0.9 | 0.00 | 0.00 | 0.00 | 53 | |
| 20260509202006 | 63 | 169 | 0.0 | 0.9 | 0.00 | 0.00 | 0.00 | 53 | |
| 20260509201906 | 63 | 169 | 0.0 | 0.9 | 0.00 | 0.00 | 0.00 | 53 | |
| 20260509201806 | 63 | 169 | 0.0 | 0.9 | 0.00 | 0.00 | 0.00 | 53 | |
| 20260509201706 | 63 | 169 | 0.0 | 0.9 | 0.00 | 0.00 | 0.00 | 53 | |
| 20260509201606 | 63 | 169 | 0.0 | 0.9 | 0.00 | 0.00 | 0.00 | 53 | |
| 20260509201506 | 63 | 169 | 0.0 | 0.9 | 0.00 | 0.00 | 0.00 | 53 | |
| 20260509201406 | 63 | 169 | 0.0 | 0.9 | 0.00 | 0.00 | 0.00 | 53 | |
| 20260509201306 | 63 | 169 | 0.0 | 0.9 | 0.00 | 0.00 | 0.00 | 53 | |
| 20260509201206 | 64 | 169 | 0.0 | 0.9 | 0.00 | 0.00 | 0.00 | 53 | |
| 20260509201106 | 64 | 169 | 0.0 | 0.9 | 0.00 | 0.00 | 0.00 | 53 | |
| 20260509201006 | 64 | 169 | 0.0 | 0.9 | 0.00 | 0.00 | 0.00 | 53 | |
| 20260509200906 | 64 | 169 | 0.0 | 0.9 | 0.00 | 0.00 | 0.00 | 53 | |
| 20260509200806 | 64 | 169 | 0.0 | 0.9 | 0.00 | 0.00 | 0.00 | 54 | |
| 20260509200706 | 64 | 169 | 0.0 | 0.9 | 0.00 | 0.00 | 0.00 | 53 | |
| 20260509200606 | 64 | 169 | 0.0 | 0.9 | 0.00 | 0.00 | 0.00 | 53 | |
| 20260509200506 | 64 | 169 | 0.0 | 0.9 | 0.00 | 0.00 | 0.00 | 53 | |
| 20260509200406 | 64 | 169 | 0.0 | 0.9 | 0.00 | 0.00 | 0.00 | 52 | |
| 20260509200306 | 64 | 169 | 0.0 | 0.9 | 0.00 | 0.00 | 0.00 | 52 | |
| 20260509200206 | 64 | 169 | 0.0 | 0.9 | 0.00 | 0.00 | 0.00 | 52 | |
| 20260509200106 | 64 | 169 | 0.0 | 0.9 | 0.00 | 0.00 | 0.00 | 52 | |
| 20260509200006 | 64 | 169 | 0.0 | 0.9 | 0.00 | 0.00 | 0.00 | 52 | |
| 20260509195906 | 64 | 169 | 0.0 | 1.7 | 0.00 | 0.00 | 0.00 | 52 | |
| 20260509195806 | 64 | 169 | 0.0 | 1.7 | 0.00 | 0.00 | 0.00 | 52 | |
| 20260509195706 | 64 | 169 | 0.0 | 1.7 | 0.00 | 0.00 | 0.00 | 52 | |
| 20260509195606 | 64 | 169 | 0.0 | 1.7 | 0.00 | 0.00 | 0.00 | 51 | |
| 20260509195506 | 64 | 168 | 0.0 | 1.7 | 0.00 | 0.00 | 0.00 | 51 | |
| 20260509195406 | 64 | 159 | 0.0 | 0.9 | 0.00 | 0.00 | 0.00 | 51 | |
| 20260509195307 | 64 | 159 | 0.0 | 0.9 | 0.00 | 0.00 | 0.00 | 51 | |
| 20260509195206 | 64 | 159 | 0.0 | 0.9 | 0.00 | 0.00 | 0.00 | 50 | |
| 20260509195106 | 65 | 159 | 0.0 | 0.9 | 0.00 | 0.00 | 0.00 | 50 | |
| 20260509195006 | 65 | 159 | 0.0 | 1.7 | 0.00 | 0.00 | 0.00 | 50 | |
| 20260509194906 | 65 | 159 | 0.0 | 1.7 | 0.00 | 0.00 | 0.00 | 49 | |
| 20260509194806 | 65 | 159 | 0.0 | 1.7 | 0.00 | 0.00 | 0.00 | 50 | |
| 20260509194706 | 65 | 159 | 0.0 | 1.7 | 0.00 | 0.00 | 0.00 | 50 | |
| 20260509194606 | 65 | 159 | 0.0 | 1.7 | 0.00 | 0.00 | 0.00 | 50 | |
| 20260509194506 | 65 | 159 | 0.0 | 1.7 | 0.00 | 0.00 | 0.00 | 49 | |
| 20260509194406 | 65 | 32 | 0.0 | 0.9 | 0.00 | 0.00 | 0.00 | 48 | |
| 20260509194306 | 65 | 32 | 0.0 | 0.9 | 0.00 | 0.00 | 0.00 | 48 | |
| 20260509194206 | 65 | 32 | 0.0 | 0.9 | 0.00 | 0.00 | 0.00 | 48 | |
| 20260509194106 | 66 | 35 | 0.0 | 0.9 | 0.00 | 0.00 | 0.00 | 47 | |
| 20260509194006 | 66 | 33 | 0.0 | 1.7 | 0.00 | 0.00 | 0.00 | 47 | |
| 20260509193906 | 66 | 34 | 0.0 | 1.7 | 0.00 | 0.00 | 0.00 | 47 | |
| 20260509193806 | 66 | 32 | 0.0 | 1.7 | 0.00 | 0.00 | 0.00 | 47 | |
| 20260509193706 | 66 | 35 | 0.0 | 1.7 | 0.00 | 0.00 | 0.00 | 47 | |
| 20260509193606 | 66 | 34 | 0.0 | 1.7 | 0.00 | 0.00 | 0.00 | 47 | |
| 20260509193506 | 66 | 18 | 0.0 | 1.7 | 0.00 | 0.00 | 0.00 | 47 | |
| 20260509193406 | 66 | 35 | 0.0 | 0.9 | 0.00 | 0.00 | 0.00 | 47 | |
| 20260509193306 | 66 | 36 | 0.0 | 0.9 | 0.00 | 0.00 | 0.00 | 46 | |
| 20260509193206 | 66 | 103 | 0.0 | 0.9 | 0.00 | 0.00 | 0.00 | 46 | |
| 20260509193106 | 66 | 103 | 0.0 | 0.9 | 0.00 | 0.00 | 0.00 | 47 | |
| 20260509193006 | 66 | 103 | 0.0 | 0.9 | 0.00 | 0.00 | 0.00 | 47 | |
| 20260509192906 | 66 | 103 | 0.0 | 0.9 | 0.00 | 0.00 | 0.00 | 46 | |
| 20260509192806 | 66 | 103 | 0.0 | 0.9 | 0.00 | 0.00 | 0.00 | 46 | |
| 20260509192706 | 66 | 103 | 0.0 | 0.9 | 0.00 | 0.00 | 0.00 | 47 | |
| 20260509192606 | 66 | 102 | 0.0 | 0.9 | 0.00 | 0.00 | 0.00 | 46 | |
| 20260509192506 | 66 | 102 | 0.0 | 0.9 | 0.00 | 0.00 | 0.00 | 46 | |
| 20260509192406 | 66 | 102 | 0.0 | 0.9 | 0.00 | 0.00 | 0.00 | 45 | |
| 20260509192306 | 67 | 103 | 0.0 | 0.9 | 0.00 | 0.00 | 0.00 | 45 | |
| 20260509192206 | 67 | 102 | 0.0 | 0.9 | 0.00 | 0.00 | 0.00 | 44 | |
| 20260509192106 | 67 | 103 | 0.0 | 0.9 | 0.00 | 0.00 | 0.00 | 44 | |
| 20260509192006 | 67 | 104 | 0.0 | 0.9 | 0.00 | 0.00 | 0.00 | 44 | |
| 20260509191906 | 67 | 104 | 0.0 | 0.9 | 0.00 | 0.00 | 0.00 | 43 | |
| 20260509191806 | 67 | 104 | 0.0 | 0.9 | 0.00 | 0.00 | 0.00 | 43 | |
| 20260509191706 | 67 | 104 | 0.0 | 0.9 | 0.00 | 0.00 | 0.00 | 43 | |
| 20260509191606 | 67 | 104 | 0.0 | 0.9 | 0.00 | 0.00 | 0.00 | 43 | |
| 20260509191506 | 67 | 103 | 0.0 | 0.9 | 0.00 | 0.00 | 0.00 | 44 | |
| 20260509191406 | 67 | 104 | 0.0 | 0.9 | 0.00 | 0.00 | 0.00 | 44 | |
| 20260509191306 | 68 | 104 | 0.0 | 0.9 | 0.00 | 0.00 | 0.00 | 43 | |
| 20260509191206 | 68 | 103 | 0.0 | 0.9 | 0.00 | 0.00 | 0.00 | 42 | |
| 20260509191106 | 68 | 104 | 0.0 | 0.9 | 0.00 | 0.00 | 0.00 | 42 | |
| 20260509191006 | 68 | 28 | 0.0 | 0.9 | 0.00 | 0.00 | 0.00 | 43 | |
| 20260509190906 | 68 | 30 | 0.0 | 1.7 | 0.00 | 0.00 | 0.00 | 43 | |
| 20260509190806 | 68 | 31 | 0.0 | 1.7 | 0.00 | 0.00 | 0.00 | 42 | |
| 20260509190706 | 68 | 10 | 0.0 | 1.7 | 0.00 | 0.00 | 0.00 | 42 | |
| 20260509190606 | 68 | 30 | 0.0 | 1.7 | 0.00 | 0.00 | 0.00 | 42 | |
| 20260509190506 | 68 | 29 | 0.0 | 1.7 | 0.00 | 0.00 | 0.00 | 42 | |
| 20260509190406 | 68 | 17 | 0.0 | 1.7 | 0.00 | 0.00 | 0.00 | 42 | |
| 20260509190306 | 68 | 342 | 0.0 | 0.9 | 0.00 | 0.00 | 0.00 | 42 | |
| 20260509190206 | 68 | 18 | 0.0 | 1.7 | 0.00 | 0.00 | 0.00 | 41 | |
| 20260509190106 | 68 | 19 | 0.0 | 1.7 | 0.00 | 0.00 | 0.00 | 42 | |
| 20260509190006 | 68 | 19 | 0.0 | 1.7 | 0.00 | 0.00 | 0.00 | 41 | |
| 20260509185906 | 68 | 20 | 0.0 | 1.7 | 0.00 | 0.00 | 0.00 | 41 | |
| 20260509185806 | 68 | 340 | 0.0 | 1.7 | 0.00 | 0.00 | 0.00 | 40 | |
| 20260509185706 | 68 | 23 | 0.0 | 1.7 | 0.00 | 0.00 | 0.00 | 40 | |
| 20260509185606 | 68 | 28 | 0.0 | 1.7 | 0.00 | 0.00 | 0.00 | 40 | |
| 20260509185506 | 68 | 25 | 0.0 | 1.7 | 0.00 | 0.00 | 0.00 | 40 | |
| 20260509185406 | 69 | 28 | 0.0 | 1.7 | 0.00 | 0.00 | 0.00 | 40 | |
| 20260509185307 | 69 | 26 | 0.0 | 1.7 | 0.00 | 0.00 | 0.00 | 39 | |
| 20260509185206 | 69 | 26 | 0.9 | 1.7 | 0.00 | 0.00 | 0.00 | 39 | |
| 20260509185106 | 69 | 34 | 0.0 | 1.7 | 0.00 | 0.00 | 0.00 | 39 | |
| 20260509185006 | 69 | 28 | 0.0 | 1.7 | 0.00 | 0.00 | 0.00 | 39 | |
| 20260509184906 | 69 | 26 | 0.0 | 1.7 | 0.00 | 0.00 | 0.00 | 39 | |
| 20260509184806 | 69 | 28 | 0.0 | 1.7 | 0.00 | 0.00 | 0.00 | 38 | |
| 20260509184706 | 69 | 31 | 0.0 | 1.7 | 0.00 | 0.00 | 0.00 | 40 | |
| 20260509184606 | 69 | 29 | 0.0 | 1.7 | 0.00 | 0.00 | 0.00 | 39 | |
| 20260509184506 | 70 | 22 | 0.0 | 1.7 | 0.00 | 0.00 | 0.00 | 37 | |
| 20260509184406 | 70 | 328 | 0.9 | 1.7 | 0.00 | 0.00 | 0.00 | 37 | |
| 20260509184306 | 70 | 338 | 0.0 | 1.7 | 0.00 | 0.00 | 0.00 | 37 | |
| 20260509184206 | 70 | 29 | 0.0 | 1.7 | 0.00 | 0.00 | 0.00 | 36 | |
| 20260509184106 | 70 | 30 | 0.0 | 1.7 | 0.00 | 0.00 | 0.00 | 36 | |
| 20260509184006 | 70 | 30 | 0.0 | 1.7 | 0.00 | 0.00 | 0.00 | 35 | |
| 20260509183906 | 70 | 27 | 0.0 | 1.7 | 0.00 | 0.00 | 0.00 | 36 | |
| 20260509183806 | 70 | 29 | 0.9 | 1.7 | 0.00 | 0.00 | 0.00 | 35 | |
| 20260509183706 | 70 | 4 | 0.0 | 1.7 | 0.00 | 0.00 | 0.00 | 35 | |
| 20260509183606 | 70 | 31 | 0.0 | 1.7 | 0.00 | 0.00 | 0.00 | 35 | |
| 20260509183506 | 70 | 26 | 0.0 | 1.7 | 0.00 | 0.00 | 0.00 | 35 | |
| 20260509183406 | 70 | 35 | 0.0 | 1.7 | 0.00 | 0.00 | 0.00 | 35 | |
| 20260509183306 | 70 | 341 | 0.0 | 1.7 | 0.00 | 0.00 | 0.00 | 35 | |
| 20260509183206 | 70 | 341 | 0.0 | 1.7 | 0.00 | 0.00 | 0.00 | 35 | |
| 20260509183106 | 70 | 341 | 0.0 | 1.7 | 0.00 | 0.00 | 0.00 | 35 | |
| 20260509183006 | 70 | 336 | 0.0 | 1.7 | 0.00 | 0.00 | 0.00 | 35 | |
| 20260509182906 | 70 | 337 | 0.0 | 1.7 | 0.00 | 0.00 | 0.00 | 35 | |
| 20260509182806 | 70 | 337 | 0.0 | 1.7 | 0.00 | 0.00 | 0.00 | 35 | |
| 20260509182706 | 70 | 336 | 0.0 | 1.7 | 0.00 | 0.00 | 0.00 | 34 | |
| 20260509182606 | 70 | 342 | 0.0 | 1.7 | 0.00 | 0.00 | 0.00 | 34 | |
| 20260509182506 | 70 | 335 | 0.0 | 1.7 | 0.00 | 0.00 | 0.00 | 34 | |
| 20260509182406 | 70 | 334 | 0.0 | 1.7 | 0.00 | 0.00 | 0.00 | 34 | |
| 20260509182307 | 71 | 334 | 0.0 | 1.7 | 0.00 | 0.00 | 0.00 | 34 | |
| 20260509182206 | 71 | 29 | 0.0 | 1.7 | 0.00 | 0.00 | 0.00 | 34 | |
| 20260509182106 | 71 | 15 | 0.0 | 1.7 | 0.00 | 0.00 | 0.00 | 34 | |
| 20260509182006 | 71 | 33 | 0.9 | 1.7 | 0.00 | 0.00 | 0.00 | 34 | |
| 20260509181906 | 71 | 19 | 0.0 | 1.7 | 0.00 | 0.00 | 0.00 | 33 | |
| 20260509181806 | 71 | 18 | 0.0 | 1.7 | 0.00 | 0.00 | 0.00 | 33 | |
| 20260509181706 | 71 | 18 | 0.0 | 1.7 | 0.00 | 0.00 | 0.00 | 33 | |
| 20260509181606 | 71 | 29 | 0.0 | 1.7 | 0.00 | 0.00 | 0.00 | 33 | |
| 20260509181506 | 71 | 24 | 0.0 | 1.7 | 0.00 | 0.00 | 0.00 | 33 | |
| 20260509181406 | 71 | 32 | 0.0 | 1.7 | 0.00 | 0.00 | 0.00 | 32 | |
| 20260509181306 | 71 | 32 | 0.0 | 1.7 | 0.00 | 0.00 | 0.00 | 32 | |
| 20260509181206 | 71 | 26 | 0.0 | 1.7 | 0.00 | 0.00 | 0.00 | 32 | |
| 20260509181106 | 71 | 25 | 0.0 | 1.7 | 0.00 | 0.00 | 0.00 | 32 | |
| 20260509181006 | 71 | 28 | 0.9 | 1.7 | 0.00 | 0.00 | 0.00 | 32 | |
| 20260509180906 | 71 | 28 | 0.0 | 1.7 | 0.00 | 0.00 | 0.00 | 33 | |
| 20260509180806 | 71 | 26 | 0.0 | 1.7 | 0.00 | 0.00 | 0.00 | 32 | |
| 20260509180706 | 71 | 25 | 0.0 | 1.7 | 0.00 | 0.00 | 0.00 | 32 | |
| 20260509180606 | 71 | 33 | 0.0 | 1.7 | 0.00 | 0.00 | 0.00 | 32 | |
| 20260509180506 | 71 | 30 | 0.0 | 0.9 | 0.00 | 0.00 | 0.00 | 33 | |
| 20260509180406 | 71 | 31 | 0.0 | 0.9 | 0.00 | 0.00 | 0.00 | 33 | |
| 20260509180306 | 71 | 31 | 0.0 | 0.9 | 0.00 | 0.00 | 0.00 | 33 | |
| 20260509180206 | 71 | 30 | 0.0 | 0.9 | 0.00 | 0.00 | 0.00 | 32 | |
| 20260509180106 | 71 | 30 | 0.0 | 1.7 | 0.00 | 0.00 | 0.00 | 32 | |
| 20260509180006 | 71 | 31 | 0.0 | 1.7 | 0.00 | 0.00 | 0.00 | 32 | |
| 20260509175906 | 71 | 29 | 0.0 | 1.7 | 0.00 | 0.00 | 0.00 | 32 | |
| 20260509175806 | 71 | 31 | 0.0 | 1.7 | 0.00 | 0.00 | 0.00 | 32 | |
| 20260509175706 | 71 | 34 | 0.0 | 1.7 | 0.00 | 0.00 | 0.00 | 31 | |
| 20260509175606 | 71 | 22 | 0.0 | 1.7 | 0.00 | 0.00 | 0.00 | 31 | |
| 20260509175506 | 71 | 25 | 0.9 | 1.7 | 0.00 | 0.00 | 0.00 | 31 | |
| 20260509175406 | 71 | 14 | 0.9 | 1.7 | 0.00 | 0.00 | 0.00 | 31 | |
| 20260509175307 | 71 | 28 | 0.0 | 1.7 | 0.00 | 0.00 | 0.00 | 31 | |
| 20260509175206 | 71 | 31 | 0.0 | 1.7 | 0.00 | 0.00 | 0.00 | 31 | |
| 20260509175106 | 71 | 33 | 0.9 | 3.5 | 0.00 | 0.00 | 0.00 | 31 | |
| 20260509175006 | 72 | 33 | 0.0 | 3.5 | 0.00 | 0.00 | 0.00 | 31 | |
| 20260509174906 | 72 | 23 | 0.0 | 3.5 | 0.00 | 0.00 | 0.00 | 31 | |
| 20260509174806 | 72 | 32 | 0.0 | 3.5 | 0.00 | 0.00 | 0.00 | 31 | |
| 20260509174706 | 72 | 24 | 0.9 | 3.5 | 0.00 | 0.00 | 0.00 | 30 | |
| 20260509174606 | 72 | 28 | 0.9 | 3.5 | 0.00 | 0.00 | 0.00 | 30 | |
| 20260509174506 | 72 | 30 | 0.9 | 3.5 | 0.00 | 0.00 | 0.00 | 30 | |
| 20260509174406 | 72 | 328 | 0.9 | 3.5 | 0.00 | 0.00 | 0.00 | 30 | |
| 20260509174306 | 72 | 27 | 0.9 | 3.5 | 0.00 | 0.00 | 0.00 | 30 | |
| 20260509174206 | 72 | 15 | 0.0 | 3.5 | 0.00 | 0.00 | 0.00 | 30 | |
| 20260509174106 | 72 | 20 | 0.0 | 3.5 | 0.00 | 0.00 | 0.00 | 30 | |
| 20260509174006 | 72 | 23 | 1.7 | 3.5 | 0.00 | 0.00 | 0.00 | 30 | |
| 20260509173906 | 72 | 31 | 0.0 | 3.5 | 0.00 | 0.00 | 0.00 | 29 | |
| 20260509173806 | 72 | 28 | 0.9 | 3.5 | 0.00 | 0.00 | 0.00 | 30 | |
| 20260509173706 | 72 | 25 | 0.9 | 3.5 | 0.00 | 0.00 | 0.00 | 29 | |
| 20260509173606 | 72 | 19 | 0.9 | 3.5 | 0.00 | 0.02 | 0.00 | 29 | |
| 20260509173506 | 72 | 30 | 0.9 | 3.5 | 0.00 | 0.02 | 0.00 | 29 | |
| 20260509173406 | 72 | 28 | 0.9 | 3.5 | 0.00 | 0.03 | 0.00 | 30 | |
| 20260509173306 | 72 | 331 | 0.9 | 3.5 | 0.00 | 0.03 | 0.00 | 30 | |
| 20260509173206 | 72 | 28 | 0.9 | 3.5 | 0.00 | 0.04 | 0.00 | 30 | |
| 20260509173106 | 73 | 23 | 0.9 | 3.5 | 0.00 | 0.04 | 0.00 | 30 | |
| 20260509173006 | 73 | 22 | 0.9 | 3.5 | 0.00 | 0.04 | 0.00 | 30 | |
| 20260509172906 | 73 | 24 | 0.9 | 3.5 | 0.00 | 0.04 | 0.00 | 29 | |
| 20260509172806 | 73 | 14 | 1.7 | 3.5 | 0.00 | 0.04 | 0.00 | 29 | |
| 20260509172706 | 73 | 20 | 1.7 | 3.5 | 0.00 | 0.04 | 0.00 | 29 | |
| 20260509172606 | 73 | 25 | 1.7 | 3.5 | 0.00 | 0.04 | 0.00 | 29 | |
| 20260509172506 | 73 | 17 | 1.7 | 3.5 | 0.00 | 0.04 | 0.00 | 29 | |
| 20260509172406 | 73 | 25 | 0.9 | 3.5 | 0.00 | 0.04 | 0.00 | 29 | |
| 20260509172307 | 73 | 20 | 0.9 | 3.5 | 0.00 | 0.04 | 0.00 | 29 | |
| 20260509172206 | 73 | 26 | 0.0 | 3.5 | 0.00 | 0.04 | 0.00 | 29 | |
| 20260509172106 | 73 | 28 | 0.9 | 4.3 | 0.00 | 0.04 | 0.00 | 28 | |
| 20260509172006 | 73 | 31 | 0.9 | 4.3 | 0.00 | 0.04 | 0.00 | 29 | |
| 20260509171906 | 73 | 24 | 0.9 | 4.3 | 0.00 | 0.04 | 0.00 | 29 | |
| 20260509171806 | 73 | 24 | 0.9 | 4.3 | 0.00 | 0.04 | 0.00 | 28 | |
| 20260509171706 | 74 | 27 | 0.9 | 4.3 | 0.00 | 0.04 | 0.00 | 28 | |
| 20260509171606 | 74 | 13 | 0.9 | 3.5 | 0.00 | 0.04 | 0.00 | 28 | |
| 20260509171506 | 74 | 23 | 0.9 | 3.5 | 0.00 | 0.04 | 0.00 | 28 | |
| 20260509171406 | 74 | 25 | 0.9 | 3.5 | 0.00 | 0.04 | 0.00 | 28 | |
| 20260509171306 | 74 | 357 | 0.9 | 3.5 | 0.00 | 0.04 | 0.00 | 28 | |
| 20260509171206 | 73 | 343 | 0.0 | 3.5 | 0.00 | 0.04 | 0.00 | 28 | |
| 20260509171106 | 73 | 27 | 0.9 | 4.3 | 0.00 | 0.04 | 0.00 | 27 | |
| 20260509171006 | 73 | 11 | 0.9 | 4.3 | 0.00 | 0.04 | 0.00 | 27 | |
| 20260509170906 | 73 | 29 | 1.7 | 4.3 | 0.00 | 0.04 | 0.00 | 28 | |
| 20260509170806 | 73 | 17 | 1.7 | 4.3 | 0.00 | 0.04 | 0.00 | 27 | |
| 20260509170706 | 73 | 22 | 1.7 | 4.3 | 0.00 | 0.04 | 0.00 | 27 | |
| 20260509170606 | 74 | 26 | 0.9 | 4.3 | 0.00 | 0.04 | 0.00 | 27 | |
| 20260509170506 | 74 | 50 | 1.7 | 4.3 | 0.00 | 0.04 | 0.00 | 27 | |
| 20260509170406 | 74 | 349 | 0.9 | 4.3 | 0.00 | 0.04 | 0.00 | 28 | |
| 20260509170306 | 74 | 29 | 0.9 | 4.3 | 0.00 | 0.04 | 0.00 | 27 | |
| 20260509170206 | 74 | 32 | 0.9 | 4.3 | 0.00 | 0.04 | 0.00 | 27 | |
| 20260509170106 | 73 | 356 | 1.7 | 4.3 | 0.00 | 0.04 | 0.00 | 27 | |
| 20260509170006 | 73 | 17 | 1.7 | 4.3 | 0.00 | 0.04 | 0.00 | 27 | |
| 20260509165906 | 73 | 351 | 2.6 | 4.3 | 0.00 | 0.04 | 0.00 | 27 | |
| 20260509165806 | 74 | 16 | 1.7 | 4.3 | 0.00 | 0.04 | 0.00 | 26 | |
| 20260509165706 | 74 | 22 | 1.7 | 4.3 | 0.00 | 0.04 | 0.00 | 27 | |
| 20260509165606 | 74 | 19 | 1.7 | 4.3 | 0.00 | 0.04 | 0.00 | 27 | |
| 20260509165506 | 74 | 29 | 1.7 | 4.3 | 0.00 | 0.04 | 0.00 | 28 | |
| 20260509165406 | 74 | 17 | 1.7 | 6.1 | 0.00 | 0.04 | 0.00 | 26 | |
| 20260509165307 | 74 | 14 | 1.7 | 6.1 | 0.00 | 0.04 | 0.00 | 27 | |
| 20260509165206 | 74 | 26 | 0.9 | 6.1 | 0.00 | 0.04 | 0.00 | 27 | |
| 20260509165106 | 74 | 353 | 1.7 | 6.1 | 0.00 | 0.04 | 0.00 | 26 | |
| 20260509165006 | 74 | 18 | 2.6 | 6.1 | 0.00 | 0.04 | 0.00 | 27 | |
| 20260509164906 | 74 | 25 | 1.7 | 6.1 | 0.00 | 0.04 | 0.00 | 27 | |
| 20260509164806 | 74 | 26 | 1.7 | 6.1 | 0.00 | 0.04 | 0.00 | 28 | |
| 20260509164706 | 74 | 22 | 0.9 | 6.1 | 0.00 | 0.04 | 0.00 | 27 | |
| 20260509164606 | 74 | 340 | 0.9 | 6.1 | 0.00 | 0.04 | 0.00 | 26 | |
| 20260509164506 | 74 | 28 | 2.6 | 6.1 | 0.00 | 0.04 | 0.00 | 26 | |
| 20260509164406 | 74 | 17 | 1.7 | 6.1 | 0.00 | 0.04 | 0.00 | 25 | |
| 20260509164306 | 74 | 25 | 2.6 | 6.1 | 0.00 | 0.04 | 0.00 | 26 | |
| 20260509164206 | 74 | 22 | 2.6 | 6.1 | 0.00 | 0.04 | 0.00 | 26 | |
| 20260509164106 | 74 | 18 | 3.5 | 6.1 | 0.00 | 0.04 | 0.00 | 26 | |
| 20260509164006 | 74 | 31 | 1.7 | 4.3 | 0.00 | 0.04 | 0.00 | 26 | |
| 20260509163906 | 74 | 27 | 0.9 | 4.3 | 0.00 | 0.04 | 0.00 | 26 | |
| 20260509163806 | 74 | 12 | 1.7 | 4.3 | 0.00 | 0.04 | 0.00 | 27 | |
| 20260509163706 | 74 | 19 | 3.5 | 4.3 | 0.00 | 0.04 | 0.00 | 26 | |
| 20260509163606 | 74 | 26 | 1.7 | 4.3 | 0.00 | 0.04 | 0.00 | 26 | |
| 20260509163506 | 74 | 7 | 1.7 | 4.3 | 0.00 | 0.04 | 0.00 | 28 | |
| 20260509163406 | 74 | 346 | 1.7 | 4.3 | 0.00 | 0.04 | 0.00 | 27 | |
| 20260509163306 | 74 | 25 | 2.6 | 4.3 | 0.00 | 0.04 | 0.00 | 27 | |
| 20260509163206 | 74 | 22 | 1.7 | 4.3 | 0.00 | 0.04 | 0.00 | 28 | |
| 20260509163106 | 74 | 357 | 1.7 | 4.3 | 0.00 | 0.04 | 0.00 | 27 | |
| 20260509163006 | 74 | 29 | 0.9 | 3.5 | 0.00 | 0.04 | 0.00 | 28 | |
| 20260509162906 | 74 | 16 | 1.7 | 4.3 | 0.00 | 0.04 | 0.00 | 28 | |
| 20260509162806 | 74 | 27 | 1.7 | 6.1 | 0.00 | 0.04 | 0.00 | 29 | |
| 20260509162706 | 74 | 26 | 0.9 | 6.1 | 0.00 | 0.04 | 0.00 | 29 | |
| 20260509162606 | 74 | 345 | 1.7 | 6.1 | 0.00 | 0.04 | 0.00 | 28 | |
| 20260509162506 | 73 | 17 | 2.6 | 6.1 | 0.00 | 0.04 | 0.00 | 27 | |
| 20260509162406 | 74 | 26 | 2.6 | 7.0 | 0.00 | 0.04 | 0.00 | 27 | |
| 20260509162307 | 74 | 351 | 3.5 | 7.0 | 0.00 | 0.04 | 0.00 | 27 | |
| 20260509162206 | 74 | 21 | 2.6 | 7.0 | 0.00 | 0.04 | 0.00 | 28 | |
| 20260509162106 | 74 | 19 | 3.5 | 7.0 | 0.00 | 0.04 | 0.00 | 27 | |
| 20260509162006 | 74 | 14 | 2.6 | 7.0 | 0.00 | 0.04 | 0.00 | 26 | |
| 20260509161906 | 74 | 354 | 2.6 | 4.3 | 0.00 | 0.04 | 0.00 | 27 | |
| 20260509161806 | 74 | 3 | 1.7 | 4.3 | 0.00 | 0.04 | 0.00 | 28 | |
| 20260509161706 | 74 | 24 | 2.6 | 4.3 | 0.00 | 0.04 | 0.00 | 27 | |
| 20260509161606 | 74 | 13 | 2.6 | 7.0 | 0.00 | 0.04 | 0.00 | 28 | |
| 20260509161506 | 74 | 349 | 1.7 | 7.0 | 0.00 | 0.04 | 0.00 | 27 | |
| 20260509161406 | 74 | 30 | 2.6 | 7.0 | 0.00 | 0.04 | 0.00 | 27 | |
| 20260509161306 | 74 | 15 | 3.5 | 7.0 | 0.00 | 0.04 | 0.00 | 26 | |
| 20260509161206 | 74 | 354 | 3.5 | 7.0 | 0.00 | 0.04 | 0.00 | 25 | |
| 20260509161106 | 75 | 15 | 1.7 | 4.3 | 0.00 | 0.04 | 0.00 | 26 | |
| 20260509161006 | 74 | 349 | 0.9 | 4.3 | 0.00 | 0.04 | 0.00 | 26 | |
| 20260509160906 | 74 | 29 | 0.9 | 4.3 | 0.00 | 0.04 | 0.00 | 26 | |
| 20260509160806 | 74 | 14 | 2.6 | 6.1 | 0.00 | 0.04 | 0.00 | 26 | |
| 20260509160706 | 75 | 4 | 1.7 | 6.1 | 0.00 | 0.04 | 0.00 | 26 | |
| 20260509160606 | 75 | 350 | 1.7 | 6.1 | 0.00 | 0.04 | 0.00 | 26 | |
| 20260509160506 | 75 | 348 | 1.7 | 7.0 | 0.00 | 0.04 | 0.00 | 25 | |
| 20260509160406 | 75 | 14 | 3.5 | 7.0 | 0.00 | 0.04 | 0.00 | 26 | |
| 20260509160306 | 75 | 11 | 1.7 | 7.0 | 0.00 | 0.04 | 0.00 | 25 | |
| 20260509160206 | 75 | 18 | 2.6 | 7.0 | 0.00 | 0.04 | 0.00 | 25 | |
| 20260509160106 | 75 | 354 | 3.5 | 7.0 | 0.00 | 0.04 | 0.00 | 25 | |
| 20260509160006 | 75 | 15 | 3.5 | 6.1 | 0.00 | 0.04 | 0.00 | 25 | |
| 20260509155906 | 75 | 21 | 2.6 | 6.1 | 0.00 | 0.04 | 0.00 | 25 | |
| 20260509155806 | 75 | 5 | 1.7 | 4.3 | 0.00 | 0.04 | 0.00 | 25 | |
| 20260509155706 | 75 | 23 | 0.9 | 4.3 | 0.00 | 0.04 | 0.00 | 25 | |
| 20260509155606 | 75 | 353 | 0.9 | 4.3 | 0.00 | 0.04 | 0.00 | 25 | |
| 20260509155506 | 75 | 20 | 0.9 | 6.1 | 0.00 | 0.04 | 0.00 | 25 | |
| 20260509155406 | 75 | 23 | 1.7 | 6.1 | 0.00 | 0.04 | 0.00 | 26 | |
| 20260509155306 | 75 | 16 | 1.7 | 6.1 | 0.00 | 0.04 | 0.00 | 25 | |
| 20260509155206 | 75 | 16 | 2.6 | 6.1 | 0.00 | 0.04 | 0.00 | 25 | |
| 20260509155106 | 75 | 347 | 2.6 | 6.1 | 0.00 | 0.04 | 0.00 | 25 | |
| 20260509155006 | 75 | 23 | 0.9 | 4.3 | 0.00 | 0.04 | 0.00 | 26 | |
| 20260509154906 | 75 | 359 | 1.7 | 6.1 | 0.00 | 0.04 | 0.00 | 25 | |
| 20260509154806 | 75 | 14 | 1.7 | 6.1 | 0.00 | 0.04 | 0.00 | 25 | |
| 20260509154706 | 75 | 23 | 1.7 | 6.1 | 0.00 | 0.04 | 0.00 | 25 | |
| 20260509154606 | 75 | 18 | 0.9 | 6.1 | 0.00 | 0.04 | 0.00 | 26 | |
| 20260509154506 | 75 | 18 | 1.7 | 6.1 | 0.00 | 0.04 | 0.00 | 25 | |
| 20260509154406 | 75 | 10 | 2.6 | 4.3 | 0.00 | 0.04 | 0.00 | 26 | |
| 20260509154306 | 75 | 14 | 2.6 | 4.3 | 0.00 | 0.04 | 0.00 | 26 | |
| 20260509154206 | 75 | 17 | 2.6 | 6.1 | 0.00 | 0.04 | 0.00 | 26 | |
| 20260509154106 | 75 | 13 | 1.7 | 6.1 | 0.00 | 0.04 | 0.00 | 25 | |
| 20260509154006 | 75 | 358 | 2.6 | 6.1 | 0.00 | 0.04 | 0.00 | 26 | |
| 20260509153906 | 75 | 9 | 1.7 | 6.1 | 0.00 | 0.04 | 0.00 | 25 | |
| 20260509153806 | 75 | 22 | 2.6 | 6.1 | 0.00 | 0.04 | 0.00 | 26 | |
| 20260509153706 | 75 | 342 | 2.6 | 6.1 | 0.00 | 0.04 | 0.00 | 26 | |
| 20260509153606 | 75 | 353 | 1.7 | 6.1 | 0.00 | 0.04 | 0.00 | 25 | |
| 20260509153506 | 75 | 10 | 2.6 | 6.1 | 0.00 | 0.04 | 0.00 | 25 | |
| 20260509153406 | 75 | 11 | 3.5 | 7.0 | 0.00 | 0.04 | 0.00 | 25 | |
| 20260509153306 | 75 | 20 | 2.6 | 7.0 | 0.00 | 0.04 | 0.00 | 25 | |
| 20260509153206 | 75 | 16 | 1.7 | 7.0 | 0.00 | 0.04 | 0.00 | 25 | |
| 20260509153106 | 75 | 30 | 2.6 | 7.0 | 0.00 | 0.04 | 0.00 | 26 | |
| 20260509153006 | 75 | 345 | 3.5 | 7.0 | 0.00 | 0.04 | 0.00 | 26 | |
| 20260509152906 | 75 | 20 | 2.6 | 4.3 | 0.00 | 0.04 | 0.00 | 25 | |
| 20260509152806 | 75 | 344 | 2.6 | 4.3 | 0.00 | 0.04 | 0.00 | 24 | |
| 20260509152706 | 75 | 26 | 0.9 | 4.3 | 0.00 | 0.04 | 0.00 | 25 | |
| 20260509152606 | 75 | 10 | 1.7 | 8.7 | 0.00 | 0.04 | 0.00 | 26 | |
| 20260509152506 | 75 | 352 | 1.7 | 8.7 | 0.00 | 0.04 | 0.00 | 26 | |
| 20260509152406 | 75 | 41 | 1.7 | 8.7 | 0.00 | 0.04 | 0.00 | 25 | |
| 20260509152307 | 75 | 19 | 2.6 | 8.7 | 0.00 | 0.04 | 0.00 | 25 | |
| 20260509152206 | 75 | 346 | 4.3 | 8.7 | 0.00 | 0.04 | 0.00 | 25 | |
| 20260509152106 | 75 | 12 | 3.5 | 7.0 | 0.00 | 0.04 | 0.00 | 25 | |
| 20260509152006 | 75 | 35 | 4.3 | 7.0 | 0.00 | 0.04 | 0.00 | 25 | |
| 20260509151906 | 75 | 39 | 2.6 | 6.1 | 0.00 | 0.04 | 0.00 | 25 | |
| 20260509151806 | 75 | 16 | 2.6 | 6.1 | 0.00 | 0.04 | 0.00 | 25 | |
| 20260509151706 | 75 | 343 | 0.9 | 6.1 | 0.00 | 0.04 | 0.00 | 26 | |
| 20260509151606 | 75 | 354 | 1.7 | 7.0 | 0.00 | 0.04 | 0.00 | 26 | |
| 20260509151506 | 75 | 16 | 0.9 | 7.0 | 0.00 | 0.04 | 0.00 | 26 | |
| 20260509151406 | 75 | 23 | 2.6 | 8.7 | 0.00 | 0.04 | 0.00 | 25 | |
| 20260509151306 | 75 | 11 | 3.5 | 8.7 | 0.00 | 0.04 | 0.00 | 25 | |
| 20260509151206 | 75 | 8 | 4.3 | 8.7 | 0.00 | 0.04 | 0.00 | 26 | |
| 20260509151106 | 75 | 146 | 2.6 | 8.7 | 0.00 | 0.04 | 0.00 | 26 | |
| 20260509151006 | 75 | 19 | 3.5 | 8.7 | 0.00 | 0.04 | 0.00 | 27 | |
| 20260509150906 | 75 | 16 | 3.5 | 7.0 | 0.00 | 0.04 | 0.00 | 26 | |
| 20260509150806 | 75 | 17 | 2.6 | 7.0 | 0.00 | 0.04 | 0.00 | 26 | |
| 20260509150706 | 75 | 19 | 4.3 | 7.0 | 0.00 | 0.04 | 0.00 | 25 | |
| 20260509150606 | 75 | 16 | 2.6 | 6.1 | 0.00 | 0.04 | 0.00 | 26 | |
| 20260509150506 | 75 | 42 | 1.7 | 3.5 | 0.00 | 0.04 | 0.00 | 27 | |
| 20260509150406 | 75 | 359 | 0.9 | 3.5 | 0.00 | 0.04 | 0.00 | 27 | |
| 20260509150306 | 75 | 24 | 1.7 | 6.1 | 0.00 | 0.04 | 0.00 | 27 | |
| 20260509150206 | 75 | 28 | 1.7 | 7.0 | 0.00 | 0.04 | 0.00 | 27 | |
| 20260509150106 | 75 | 21 | 2.6 | 8.7 | 0.00 | 0.04 | 0.00 | 25 | |
| 20260509150006 | 75 | 18 | 1.7 | 8.7 | 0.00 | 0.04 | 0.00 | 27 | |
| 20260509145906 | 75 | 22 | 3.5 | 8.7 | 0.00 | 0.04 | 0.00 | 26 | |
| 20260509145806 | 75 | 17 | 4.3 | 8.7 | 0.00 | 0.04 | 0.00 | 25 | |
| 20260509145706 | 75 | 4 | 5.2 | 8.7 | 0.00 | 0.04 | 0.00 | 26 | |
| 20260509145606 | 74 | 15 | 4.3 | 7.0 | 0.00 | 0.04 | 0.00 | 26 | |
| 20260509145506 | 75 | 20 | 4.3 | 7.0 | 0.00 | 0.04 | 0.00 | 25 | |
| 20260509145406 | 75 | 39 | 3.5 | 7.0 | 0.00 | 0.04 | 0.00 | 25 | |
| 20260509145306 | 75 | 353 | 1.7 | 6.1 | 0.00 | 0.04 | 0.00 | 25 | |
| 20260509145206 | 75 | 9 | 2.6 | 6.1 | 0.00 | 0.04 | 0.00 | 26 | |
| 20260509145106 | 75 | 350 | 3.5 | 6.1 | 0.00 | 0.04 | 0.00 | 26 | |
| 20260509145006 | 75 | 22 | 2.6 | 6.1 | 0.00 | 0.04 | 0.00 | 27 | |
| 20260509144906 | 75 | 24 | 2.6 | 6.1 | 0.00 | 0.04 | 0.00 | 26 | |
| 20260509144806 | 75 | 95 | 2.6 | 7.0 | 0.00 | 0.04 | 0.00 | 25 | |
| 20260509144706 | 75 | 335 | 2.6 | 7.0 | 0.00 | 0.04 | 0.00 | 25 | |
| 20260509144606 | 75 | 19 | 2.6 | 7.0 | 0.00 | 0.04 | 0.00 | 25 | |
| 20260509144506 | 75 | 22 | 2.6 | 7.0 | 0.00 | 0.04 | 0.00 | 26 | |
| 20260509144406 | 75 | 19 | 3.5 | 7.0 | 0.00 | 0.04 | 0.00 | 26 | |
| 20260509144306 | 75 | 19 | 3.5 | 6.1 | 0.00 | 0.04 | 0.00 | 26 | |
| 20260509144206 | 75 | 18 | 1.7 | 6.1 | 0.00 | 0.04 | 0.00 | 27 | |
| 20260509144106 | 75 | 16 | 1.7 | 6.1 | 0.00 | 0.04 | 0.00 | 26 | |
| 20260509144006 | 75 | 3 | 2.6 | 6.1 | 0.00 | 0.04 | 0.00 | 25 | |
| 20260509143906 | 75 | 24 | 1.7 | 6.1 | 0.00 | 0.04 | 0.00 | 25 | |
| 20260509143806 | 75 | 341 | 0.9 | 7.0 | 0.00 | 0.04 | 0.00 | 26 | |
| 20260509143706 | 75 | 21 | 1.7 | 7.0 | 0.00 | 0.04 | 0.00 | 26 | |
| 20260509143606 | 75 | 340 | 1.7 | 7.0 | 0.00 | 0.04 | 0.00 | 26 | |
| 20260509143506 | 75 | 349 | 3.5 | 7.0 | 0.00 | 0.04 | 0.00 | 25 | |
| 20260509143406 | 75 | 339 | 4.3 | 7.0 | 0.00 | 0.04 | 0.00 | 26 | |
| 20260509143306 | 75 | 353 | 2.6 | 6.1 | 0.00 | 0.04 | 0.00 | 25 | |
| 20260509143206 | 75 | 28 | 2.6 | 6.1 | 0.00 | 0.04 | 0.00 | 26 | |
| 20260509143106 | 75 | 26 | 2.6 | 8.7 | 0.00 | 0.04 | 0.00 | 26 | |
| 20260509143006 | 75 | 22 | 2.6 | 8.7 | 0.00 | 0.04 | 0.00 | 26 | |
| 20260509142906 | 75 | 21 | 3.5 | 8.7 | 0.00 | 0.04 | 0.00 | 26 | |
| 20260509142806 | 75 | 29 | 4.3 | 8.7 | 0.00 | 0.04 | 0.00 | 26 | |
| 20260509142706 | 75 | 14 | 4.3 | 8.7 | 0.00 | 0.04 | 0.00 | 26 | |
| 20260509142606 | 75 | 9 | 3.5 | 7.0 | 0.00 | 0.04 | 0.00 | 26 | |
| 20260509142506 | 75 | 358 | 3.5 | 7.0 | 0.00 | 0.04 | 0.00 | 26 | |
| 20260509142406 | 76 | 20 | 3.5 | 7.0 | 0.00 | 0.04 | 0.00 | 26 | |
| 20260509142307 | 76 | 46 | 3.5 | 7.0 | 0.00 | 0.04 | 0.00 | 27 | |
| 20260509142206 | 75 | 17 | 1.7 | 6.1 | 0.00 | 0.04 | 0.00 | 27 | |
| 20260509142106 | 75 | 345 | 3.5 | 7.0 | 0.00 | 0.04 | 0.00 | 28 | |
| 20260509142006 | 75 | 354 | 3.5 | 7.0 | 0.00 | 0.04 | 0.00 | 27 | |
| 20260509141906 | 75 | 9 | 0.9 | 7.0 | 0.00 | 0.04 | 0.00 | 26 | |
| 20260509141806 | 75 | 18 | 1.7 | 7.0 | 0.00 | 0.04 | 0.00 | 26 | |
| 20260509141706 | 75 | 23 | 3.5 | 7.0 | 0.00 | 0.04 | 0.00 | 26 | |
| 20260509141606 | 75 | 19 | 3.5 | 6.1 | 0.00 | 0.04 | 0.00 | 26 | |
| 20260509141506 | 75 | 5 | 3.5 | 8.7 | 0.00 | 0.04 | 0.00 | 25 | |
| 20260509141406 | 75 | 21 | 4.3 | 8.7 | 0.00 | 0.04 | 0.00 | 25 | |
| 20260509141306 | 75 | 27 | 2.6 | 8.7 | 0.00 | 0.04 | 0.00 | 25 | |
| 20260509141206 | 75 | 20 | 3.5 | 8.7 | 0.00 | 0.04 | 0.00 | 26 | |
| 20260509141106 | 75 | 13 | 5.2 | 8.7 | 0.00 | 0.04 | 0.00 | 25 | |
| 20260509141006 | 75 | 6 | 3.5 | 7.0 | 0.00 | 0.04 | 0.00 | 27 | |
| 20260509140906 | 75 | 352 | 3.5 | 7.0 | 0.00 | 0.04 | 0.00 | 28 | |
| 20260509140806 | 75 | 16 | 3.5 | 6.1 | 0.00 | 0.04 | 0.00 | 27 | |
| 20260509140706 | 75 | 36 | 2.6 | 6.1 | 0.00 | 0.04 | 0.00 | 25 | |
| 20260509140606 | 75 | 16 | 2.6 | 6.1 | 0.00 | 0.04 | 0.00 | 26 | |
| 20260509140506 | 75 | 342 | 1.7 | 6.1 | 0.00 | 0.04 | 0.00 | 26 | |
| 20260509140406 | 75 | 14 | 1.7 | 6.1 | 0.00 | 0.04 | 0.00 | 27 | |
| 20260509140306 | 75 | 26 | 3.5 | 6.1 | 0.00 | 0.04 | 0.00 | 27 | |
| 20260509140206 | 75 | 17 | 2.6 | 4.3 | 0.00 | 0.04 | 0.00 | 26 | |
| 20260509140106 | 75 | 25 | 1.7 | 4.3 | 0.00 | 0.04 | 0.00 | 26 | |
| 20260509140006 | 75 | 5 | 2.6 | 4.3 | 0.00 | 0.04 | 0.00 | 27 | |
| 20260509135906 | 75 | 20 | 2.6 | 6.1 | 0.00 | 0.04 | 0.00 | 27 | |
| 20260509135806 | 75 | 32 | 1.7 | 6.1 | 0.00 | 0.04 | 0.00 | 26 | |
| 20260509135706 | 75 | 21 | 2.6 | 6.1 | 0.00 | 0.04 | 0.00 | 27 | |
| 20260509135606 | 75 | 354 | 3.5 | 6.1 | 0.00 | 0.04 | 0.00 | 26 | |
| 20260509135506 | 75 | 20 | 3.5 | 6.1 | 0.00 | 0.04 | 0.00 | 25 | |
| 20260509135406 | 75 | 15 | 2.6 | 6.1 | 0.00 | 0.04 | 0.00 | 26 | |
| 20260509135306 | 75 | 12 | 2.6 | 6.1 | 0.00 | 0.04 | 0.00 | 27 | |
| 20260509135206 | 75 | 346 | 3.5 | 7.0 | 0.00 | 0.04 | 0.00 | 28 | |
| 20260509135106 | 75 | 357 | 3.5 | 7.0 | 0.00 | 0.04 | 0.00 | 27 | |
| 20260509135006 | 75 | 17 | 3.5 | 7.0 | 0.00 | 0.04 | 0.00 | 26 | |
| 20260509134906 | 75 | 24 | 2.6 | 7.0 | 0.00 | 0.04 | 0.00 | 26 | |
| 20260509134806 | 75 | 18 | 5.2 | 7.0 | 0.00 | 0.04 | 0.00 | 25 | |
| 20260509134706 | 75 | 8 | 2.6 | 7.0 | 0.00 | 0.04 | 0.00 | 26 | |
| 20260509134606 | 75 | 348 | 3.5 | 7.0 | 0.00 | 0.04 | 0.00 | 25 | |
| 20260509134506 | 75 | 349 | 3.5 | 7.0 | 0.00 | 0.04 | 0.00 | 26 | |
| 20260509134406 | 75 | 32 | 2.6 | 7.0 | 0.00 | 0.04 | 0.00 | 26 | |
| 20260509134306 | 75 | 15 | 3.5 | 7.0 | 0.00 | 0.04 | 0.00 | 25 | |
| 20260509134206 | 75 | 359 | 2.6 | 8.7 | 0.00 | 0.04 | 0.00 | 25 | |
| 20260509134106 | 75 | 352 | 2.6 | 8.7 | 0.00 | 0.04 | 0.00 | 25 | |
| 20260509134006 | 75 | 5 | 2.6 | 8.7 | 0.00 | 0.04 | 0.00 | 25 | |
| 20260509133906 | 75 | 4 | 4.3 | 8.7 | 0.00 | 0.04 | 0.00 | 25 | |
| 20260509133806 | 75 | 42 | 4.3 | 8.7 | 0.00 | 0.04 | 0.00 | 24 | |
| 20260509133706 | 75 | 11 | 2.6 | 7.0 | 0.00 | 0.04 | 0.00 | 25 | |
| 20260509133606 | 76 | 27 | 3.5 | 7.0 | 0.00 | 0.04 | 0.00 | 25 | |
| 20260509133506 | 76 | 12 | 2.6 | 4.3 | 0.00 | 0.04 | 0.00 | 27 | |
| 20260509133406 | 76 | 11 | 3.5 | 6.1 | 0.00 | 0.04 | 0.00 | 27 | |
| 20260509133306 | 76 | 5 | 0.9 | 7.0 | 0.00 | 0.04 | 0.00 | 26 | |
| 20260509133206 | 75 | 29 | 2.6 | 7.0 | 0.00 | 0.04 | 0.00 | 26 | |
| 20260509133106 | 75 | 348 | 1.7 | 7.0 | 0.00 | 0.04 | 0.00 | 26 | |
| 20260509133006 | 75 | 15 | 2.6 | 7.0 | 0.00 | 0.04 | 0.00 | 26 | |
| 20260509132906 | 75 | 341 | 2.6 | 7.0 | 0.00 | 0.04 | 0.00 | 27 | |
| 20260509132806 | 75 | 353 | 3.5 | 7.0 | 0.00 | 0.04 | 0.00 | 26 | |
| 20260509132706 | 76 | 342 | 2.6 | 7.0 | 0.00 | 0.04 | 0.00 | 27 | |
| 20260509132606 | 75 | 4 | 3.5 | 7.0 | 0.00 | 0.04 | 0.00 | 27 | |
| 20260509132506 | 75 | 11 | 1.7 | 9.6 | 0.00 | 0.04 | 0.00 | 26 | |
| 20260509132406 | 75 | 23 | 3.5 | 9.6 | 0.00 | 0.04 | 0.00 | 27 | |
| 20260509132307 | 75 | 11 | 3.5 | 9.6 | 0.00 | 0.04 | 0.00 | 27 | |
| 20260509132206 | 75 | 8 | 4.3 | 9.6 | 0.00 | 0.04 | 0.00 | 26 | |
| 20260509132106 | 75 | 353 | 5.2 | 9.6 | 0.00 | 0.04 | 0.00 | 27 | |
| 20260509132006 | 75 | 54 | 4.3 | 7.0 | 0.00 | 0.04 | 0.00 | 26 | |
| 20260509131906 | 75 | 6 | 3.5 | 7.0 | 0.00 | 0.04 | 0.00 | 27 | |
| 20260509131806 | 75 | 345 | 1.7 | 6.1 | 0.00 | 0.04 | 0.00 | 27 | |
| 20260509131706 | 75 | 14 | 3.5 | 7.0 | 0.00 | 0.04 | 0.00 | 27 | |
| 20260509131606 | 75 | 16 | 3.5 | 7.0 | 0.00 | 0.04 | 0.00 | 27 | |
| 20260509131506 | 75 | 15 | 3.5 | 7.0 | 0.00 | 0.04 | 0.00 | 27 | |
| 20260509131406 | 75 | 11 | 3.5 | 7.0 | 0.00 | 0.04 | 0.00 | 27 | |
| 20260509131306 | 75 | 18 | 4.3 | 7.0 | 0.00 | 0.04 | 0.00 | 27 | |
| 20260509131206 | 76 | 14 | 4.3 | 7.0 | 0.00 | 0.04 | 0.00 | 26 | |
| 20260509131106 | 76 | 316 | 1.7 | 7.0 | 0.00 | 0.04 | 0.00 | 27 | |
| 20260509131006 | 76 | 12 | 0.9 | 8.7 | 0.00 | 0.04 | 0.00 | 27 | |
| 20260509130906 | 75 | 39 | 0.9 | 8.7 | 0.00 | 0.04 | 0.00 | 28 | |
| 20260509130806 | 75 | 353 | 3.5 | 8.7 | 0.00 | 0.04 | 0.00 | 28 | |
| 20260509130706 | 75 | 14 | 2.6 | 8.7 | 0.00 | 0.04 | 0.00 | 27 | |
| 20260509130606 | 75 | 29 | 4.3 | 8.7 | 0.00 | 0.04 | 0.00 | 28 | |
| 20260509130506 | 75 | 10 | 2.6 | 6.1 | 0.00 | 0.04 | 0.00 | 27 | |
| 20260509130406 | 75 | 28 | 2.6 | 6.1 | 0.00 | 0.04 | 0.00 | 29 | |
| 20260509130306 | 75 | 27 | 1.7 | 6.1 | 0.00 | 0.04 | 0.00 | 28 | |
| 20260509130206 | 75 | 24 | 2.6 | 6.1 | 0.00 | 0.04 | 0.00 | 28 | |
| 20260509130106 | 75 | 6 | 3.5 | 7.0 | 0.00 | 0.04 | 0.00 | 27 | |
| 20260509130006 | 75 | 11 | 2.6 | 7.0 | 0.00 | 0.04 | 0.00 | 28 | |
| 20260509125906 | 75 | 14 | 3.5 | 7.0 | 0.00 | 0.04 | 0.00 | 28 | |
| 20260509125806 | 75 | 5 | 1.7 | 7.0 | 0.00 | 0.04 | 0.00 | 30 | |
| 20260509125706 | 75 | 16 | 3.5 | 7.0 | 0.00 | 0.04 | 0.00 | 28 | |
| 20260509125606 | 75 | 11 | 4.3 | 8.7 | 0.00 | 0.04 | 0.00 | 28 | |
| 20260509125506 | 76 | 20 | 2.6 | 11.3 | 0.00 | 0.04 | 0.00 | 29 | |
| 20260509125406 | 75 | 20 | 1.7 | 11.3 | 0.00 | 0.04 | 0.00 | 29 | |
| 20260509125308 | 75 | 11 | 3.5 | 11.3 | 0.00 | 0.04 | 0.00 | 29 | |
| 20260509125206 | 75 | 17 | 4.3 | 11.3 | 0.00 | 0.04 | 0.00 | 28 | |
| 20260509125106 | 75 | 22 | 5.2 | 11.3 | 0.00 | 0.04 | 0.00 | 27 | |
| 20260509125006 | 75 | 15 | 4.3 | 8.7 | 0.00 | 0.04 | 0.00 | 25 | |
| 20260509124906 | 75 | 349 | 4.3 | 8.7 | 0.00 | 0.04 | 0.00 | 27 | |
| 20260509124806 | 75 | 352 | 2.6 | 7.0 | 0.00 | 0.04 | 0.00 | 30 | |
| 20260509124706 | 75 | 20 | 2.6 | 7.0 | 0.00 | 0.04 | 0.00 | 30 | |
| 20260509124606 | 75 | 25 | 3.5 | 7.0 | 0.00 | 0.04 | 0.00 | 29 | |
| 20260509124506 | 75 | 351 | 2.6 | 6.1 | 0.00 | 0.04 | 0.00 | 28 | |
| 20260509124406 | 75 | 12 | 3.5 | 7.0 | 0.00 | 0.04 | 0.00 | 30 | |
| 20260509124306 | 75 | 17 | 2.6 | 7.0 | 0.00 | 0.04 | 0.00 | 31 | |
| 20260509124206 | 75 | 335 | 3.5 | 7.0 | 0.00 | 0.04 | 0.00 | 30 | |
| 20260509124106 | 75 | 352 | 2.6 | 7.0 | 0.00 | 0.04 | 0.00 | 30 | |
| 20260509124006 | 75 | 18 | 2.6 | 7.0 | 0.00 | 0.04 | 0.00 | 32 | |
| 20260509123906 | 75 | 357 | 4.3 | 7.0 | 0.00 | 0.04 | 0.00 | 31 | |
| 20260509123806 | 75 | 13 | 4.3 | 7.0 | 0.00 | 0.04 | 0.00 | 31 | |
| 20260509123706 | 75 | 348 | 3.5 | 6.1 | 0.00 | 0.04 | 0.00 | 31 | |
| 20260509123606 | 75 | 354 | 2.6 | 6.1 | 0.00 | 0.04 | 0.00 | 30 | |
| 20260509123506 | 76 | 27 | 2.6 | 6.1 | 0.00 | 0.04 | 0.00 | 32 | |
| 20260509123406 | 75 | 43 | 2.6 | 4.3 | 0.00 | 0.04 | 0.00 | 32 | |
| 20260509123306 | 75 | 14 | 1.7 | 4.3 | 0.00 | 0.04 | 0.00 | 31 | |
| 20260509123206 | 75 | 23 | 2.6 | 4.3 | 0.00 | 0.04 | 0.00 | 32 | |
| 20260509123106 | 75 | 14 | 2.6 | 6.1 | 0.00 | 0.04 | 0.00 | 33 | |
| 20260509123006 | 75 | 26 | 1.7 | 7.0 | 0.00 | 0.04 | 0.00 | 33 | |
| 20260509122906 | 75 | 344 | 0.9 | 7.0 | 0.00 | 0.04 | 0.00 | 32 | |
| 20260509122806 | 75 | 339 | 2.6 | 7.0 | 0.00 | 0.04 | 0.00 | 32 | |
| 20260509122706 | 75 | 19 | 3.5 | 7.0 | 0.00 | 0.04 | 0.00 | 32 | |
| 20260509122606 | 75 | 22 | 3.5 | 7.0 | 0.00 | 0.04 | 0.00 | 33 | |
| 20260509122506 | 75 | 17 | 3.5 | 7.0 | 0.00 | 0.04 | 0.00 | 34 | |
| 20260509122406 | 74 | 15 | 3.5 | 7.0 | 0.00 | 0.04 | 0.00 | 30 | |
| 20260509122306 | 75 | 354 | 1.7 | 7.0 | 0.00 | 0.04 | 0.00 | 29 | |
| 20260509122206 | 74 | 23 | 2.6 | 7.0 | 0.00 | 0.04 | 0.00 | 29 | |
| 20260509122106 | 74 | 21 | 2.6 | 7.0 | 0.00 | 0.04 | 0.00 | 32 | |
| 20260509122006 | 74 | 9 | 2.6 | 7.0 | 0.00 | 0.04 | 0.00 | 36 | |
| 20260509121906 | 74 | 356 | 3.5 | 7.0 | 0.00 | 0.04 | 0.00 | 36 | |
| 20260509121806 | 74 | 15 | 2.6 | 7.0 | 0.00 | 0.04 | 0.00 | 37 | |
| 20260509121706 | 74 | 351 | 3.5 | 7.0 | 0.00 | 0.04 | 0.00 | 59 | |
| 20260509121606 | 73 | 20 | 3.5 | 6.1 | 0.00 | 0.04 | 0.00 | 59 | |
| 20260509121506 | 74 | 350 | 3.5 | 6.1 | 0.00 | 0.04 | 0.00 | 59 | |
| 20260509121406 | 74 | 20 | 3.5 | 7.0 | 0.00 | 0.04 | 0.00 | 59 | |
| 20260509121306 | 74 | 23 | 3.5 | 8.7 | 0.00 | 0.04 | 0.00 | 59 | |
| 20260509121206 | 74 | 355 | 2.6 | 8.7 | 0.00 | 0.04 | 0.00 | 59 | |
| 20260509121106 | 74 | 26 | 2.6 | 8.7 | 0.00 | 0.04 | 0.00 | 59 | |
| 20260509121006 | 74 | 348 | 4.3 | 8.7 | 0.00 | 0.04 | 0.00 | 59 | |
| 20260509120906 | 74 | 22 | 4.3 | 8.7 | 0.00 | 0.04 | 0.00 | 59 | |
| 20260509120806 | 74 | 355 | 2.6 | 7.0 | 0.00 | 0.04 | 0.00 | 59 | |
| 20260509120706 | 74 | 31 | 1.7 | 6.1 | 0.00 | 0.04 | 0.00 | 59 | |
| 20260509120606 | 74 | 16 | 2.6 | 6.1 | 0.00 | 0.04 | 0.00 | 59 | |
| 20260509120506 | 74 | 18 | 3.5 | 6.1 | 0.00 | 0.04 | 0.00 | 59 | |
| 20260509120406 | 74 | 7 | 3.5 | 7.0 | 0.00 | 0.04 | 0.00 | 59 | |
| 20260509120306 | 74 | 13 | 2.6 | 7.0 | 0.00 | 0.04 | 0.00 | 59 | |
| 20260509120206 | 74 | 23 | 2.6 | 7.0 | 0.00 | 0.04 | 0.00 | 59 | |
| 20260509120106 | 74 | 18 | 2.6 | 7.0 | 0.00 | 0.04 | 0.00 | 59 | |
| 20260509120006 | 74 | 17 | 3.5 | 7.0 | 0.00 | 0.04 | 0.00 | 59 | |
| 20260509115906 | 74 | 40 | 2.6 | 9.6 | 0.00 | 0.04 | 0.00 | 59 | |
| 20260509115806 | 74 | 4 | 1.7 | 9.6 | 0.00 | 0.04 | 0.00 | 59 | |
| 20260509115706 | 74 | 24 | 2.6 | 9.6 | 0.00 | 0.04 | 0.00 | 59 | |
| 20260509115606 | 74 | 346 | 2.6 | 9.6 | 0.00 | 0.04 | 0.00 | 59 | |
| 20260509115506 | 74 | 15 | 2.6 | 9.6 | 0.00 | 0.04 | 0.00 | 59 | |
| 20260509115406 | 73 | 24 | 1.7 | 6.1 | 0.00 | 0.04 | 0.00 | 59 | |
| 20260509115308 | 74 | 355 | 2.6 | 7.0 | 0.00 | 0.04 | 0.00 | 59 | |
| 20260509115206 | 74 | 353 | 1.7 | 7.0 | 0.00 | 0.04 | 0.00 | 59 | |
| 20260509115106 | 74 | 72 | 3.5 | 7.0 | 0.00 | 0.04 | 0.00 | 59 | |
| 20260509115006 | 73 | 12 | 2.6 | 7.0 | 0.00 | 0.04 | 0.00 | 59 | |
| 20260509114906 | 73 | 22 | 4.3 | 7.0 | 0.00 | 0.04 | 0.00 | 59 | |
| 20260509114806 | 73 | 16 | 1.7 | 6.1 | 0.00 | 0.04 | 0.00 | 59 | |
| 20260509114706 | 73 | 13 | 2.6 | 7.0 | 0.00 | 0.04 | 0.00 | 59 | |
| 20260509114606 | 73 | 22 | 3.5 | 7.0 | 0.00 | 0.04 | 0.00 | 59 | |
| 20260509114506 | 73 | 12 | 2.6 | 7.0 | 0.00 | 0.04 | 0.00 | 59 | |
| 20260509114406 | 73 | 24 | 1.7 | 7.0 | 0.00 | 0.04 | 0.00 | 59 | |
| 20260509114306 | 73 | 17 | 4.3 | 7.0 | 0.00 | 0.04 | 0.00 | 59 | |
| 20260509114206 | 73 | 10 | 2.6 | 7.0 | 0.00 | 0.04 | 0.00 | 59 | |
| 20260509114106 | 74 | 25 | 0.9 | 7.0 | 0.00 | 0.04 | 0.00 | 59 | |
| 20260509114006 | 73 | 33 | 2.6 | 7.0 | 0.00 | 0.04 | 0.00 | 59 | |
| 20260509113906 | 74 | 354 | 3.5 | 7.0 | 0.00 | 0.04 | 0.00 | 59 | |
| 20260509113806 | 74 | 4 | 2.6 | 7.0 | 0.00 | 0.04 | 0.00 | 59 | |
| 20260509113706 | 74 | 21 | 3.5 | 7.0 | 0.00 | 0.04 | 0.00 | 59 | |
| 20260509113606 | 74 | 341 | 3.5 | 7.0 | 0.00 | 0.04 | 0.00 | 59 | |
| 20260509113506 | 74 | 7 | 1.7 | 6.1 | 0.00 | 0.04 | 0.00 | 59 | |
| 20260509113406 | 73 | 23 | 1.7 | 6.1 | 0.00 | 0.04 | 0.00 | 59 | |
| 20260509113306 | 73 | 33 | 1.7 | 6.1 | 0.00 | 0.04 | 0.00 | 59 | |
| 20260509113206 | 73 | 16 | 3.5 | 6.1 | 0.00 | 0.04 | 0.00 | 59 | |
| 20260509113106 | 73 | 15 | 3.5 | 6.1 | 0.00 | 0.04 | 0.00 | 59 | |
| 20260509113006 | 74 | 8 | 0.9 | 6.1 | 0.00 | 0.04 | 0.00 | 59 | |
| 20260509112906 | 74 | 21 | 2.6 | 6.1 | 0.00 | 0.04 | 0.00 | 59 | |
| 20260509112806 | 73 | 20 | 1.7 | 6.1 | 0.00 | 0.04 | 0.00 | 59 | |
| 20260509112706 | 73 | 20 | 0.9 | 6.1 | 0.00 | 0.04 | 0.00 | 59 | |
| 20260509112606 | 73 | 337 | 2.6 | 7.0 | 0.00 | 0.04 | 0.00 | 59 | |
| 20260509112506 | 73 | 346 | 2.6 | 7.0 | 0.00 | 0.04 | 0.00 | 59 | |
| 20260509112406 | 72 | 4 | 0.9 | 7.0 | 0.00 | 0.04 | 0.00 | 59 | |
| 20260509112307 | 72 | 21 | 2.6 | 7.0 | 0.00 | 0.04 | 0.00 | 59 | |
| 20260509112206 | 72 | 13 | 4.3 | 8.7 | 0.00 | 0.04 | 0.00 | 59 | |
| 20260509112106 | 72 | 21 | 2.6 | 8.7 | 0.00 | 0.04 | 0.00 | 59 | |
| 20260509112006 | 72 | 356 | 2.6 | 8.7 | 0.00 | 0.04 | 0.00 | 59 | |
| 20260509111906 | 72 | 20 | 3.5 | 8.7 | 0.00 | 0.04 | 0.00 | 59 | |
| 20260509111806 | 72 | 358 | 6.1 | 8.7 | 0.00 | 0.04 | 0.00 | 59 | |
| 20260509111706 | 73 | 8 | 5.2 | 8.7 | 0.00 | 0.04 | 0.00 | 59 | |
| 20260509111606 | 73 | 357 | 2.6 | 6.1 | 0.00 | 0.04 | 0.00 | 59 | |
| 20260509111506 | 73 | 346 | 1.7 | 6.1 | 0.00 | 0.04 | 0.00 | 59 | |
| 20260509111406 | 73 | 28 | 1.7 | 6.1 | 0.00 | 0.04 | 0.00 | 59 | |
| 20260509111306 | 73 | 29 | 1.7 | 6.1 | 0.00 | 0.04 | 0.00 | 59 | |
| 20260509111206 | 73 | 9 | 3.5 | 6.1 | 0.00 | 0.04 | 0.00 | 59 | |
| 20260509111106 | 72 | 351 | 1.7 | 7.0 | 0.00 | 0.04 | 0.00 | 59 | |
| 20260509111006 | 72 | 14 | 0.9 | 7.0 | 0.00 | 0.04 | 0.00 | 59 | |
| 20260509110906 | 72 | 349 | 1.7 | 7.0 | 0.00 | 0.04 | 0.00 | 59 | |
| 20260509110806 | 72 | 13 | 2.6 | 7.0 | 0.00 | 0.04 | 0.00 | 59 | |
| 20260509110706 | 72 | 16 | 2.6 | 7.0 | 0.00 | 0.04 | 0.00 | 59 | |
| 20260509110606 | 72 | 11 | 4.3 | 7.0 | 0.00 | 0.04 | 0.00 | 59 | |
| 20260509110506 | 72 | 4 | 3.5 | 6.1 | 0.00 | 0.04 | 0.00 | 59 | |
| 20260509110406 | 72 | 14 | 1.7 | 6.1 | 0.00 | 0.04 | 0.00 | 59 | |
| 20260509110306 | 73 | 25 | 1.7 | 6.1 | 0.00 | 0.04 | 0.00 | 59 | |
| 20260509110206 | 72 | 15 | 0.0 | 6.1 | 0.00 | 0.04 | 0.00 | 59 | |
| 20260509110106 | 72 | 30 | 2.6 | 6.1 | 0.00 | 0.04 | 0.00 | 59 | |
| 20260509110006 | 72 | 17 | 2.6 | 6.1 | 0.00 | 0.04 | 0.00 | 59 | |
| 20260509105906 | 72 | 24 | 1.7 | 6.1 | 0.00 | 0.04 | 0.00 | 59 | |
| 20260509105806 | 72 | 18 | 1.7 | 6.1 | 0.00 | 0.04 | 0.00 | 59 | |
| 20260509105706 | 72 | 28 | 2.6 | 6.1 | 0.00 | 0.04 | 0.00 | 59 | |
| 20260509105606 | 72 | 11 | 2.6 | 6.1 | 0.00 | 0.04 | 0.00 | 59 | |
| 20260509105506 | 72 | 23 | 2.6 | 6.1 | 0.00 | 0.04 | 0.00 | 59 | |
| 20260509105406 | 72 | 13 | 1.7 | 6.1 | 0.00 | 0.04 | 0.00 | 59 | |
| 20260509105306 | 72 | 20 | 1.7 | 6.1 | 0.00 | 0.04 | 0.00 | 59 | |
| 20260509105206 | 72 | 354 | 1.7 | 6.1 | 0.00 | 0.04 | 0.00 | 59 | |
| 20260509105106 | 72 | 23 | 2.6 | 6.1 | 0.00 | 0.04 | 0.00 | 59 | |
| 20260509105006 | 72 | 27 | 0.9 | 6.1 | 0.00 | 0.04 | 0.00 | 59 | |
| 20260509104906 | 71 | 16 | 1.7 | 6.1 | 0.00 | 0.04 | 0.00 | 59 | |
| 20260509104806 | 72 | 16 | 3.5 | 6.1 | 0.00 | 0.04 | 0.00 | 59 | |
| 20260509104706 | 71 | 355 | 3.5 | 6.1 | 0.00 | 0.04 | 0.00 | 59 | |
| 20260509104606 | 71 | 30 | 2.6 | 4.3 | 0.00 | 0.04 | 0.00 | 59 | |
| 20260509104506 | 71 | 19 | 1.7 | 6.1 | 0.00 | 0.04 | 0.00 | 59 | |
| 20260509104406 | 71 | 353 | 2.6 | 7.0 | 0.00 | 0.04 | 0.00 | 59 | |
| 20260509104306 | 71 | 329 | 2.6 | 7.0 | 0.00 | 0.04 | 0.00 | 59 | |
| 20260509104206 | 72 | 17 | 1.7 | 7.0 | 0.00 | 0.04 | 0.00 | 59 | |
| 20260509104108 | 72 | 340 | 2.6 | 7.0 | 0.00 | 0.04 | 0.00 | 59 | |
| 20260509104006 | 72 | 27 | 3.5 | 7.0 | 0.00 | 0.04 | 0.00 | 59 | |
| 20260509103906 | 72 | 12 | 4.3 | 7.0 | 0.00 | 0.04 | 0.00 | 59 | |
| 20260509103806 | 72 | 22 | 1.7 | 6.1 | 0.00 | 0.04 | 0.00 | 59 | |
| 20260509103706 | 71 | 33 | 0.9 | 6.1 | 0.00 | 0.04 | 0.00 | 59 | |
| 20260509103606 | 71 | 345 | 0.9 | 6.1 | 0.00 | 0.04 | 0.00 | 59 | |
| 20260509103506 | 71 | 28 | 2.6 | 6.1 | 0.00 | 0.04 | 0.00 | 59 | |
| 20260509103406 | 72 | 4 | 2.6 | 6.1 | 0.00 | 0.04 | 0.00 | 59 | |
| 20260509103306 | 71 | 12 | 0.0 | 6.1 | 0.00 | 0.04 | 0.00 | 59 | |
| 20260509103206 | 71 | 28 | 1.7 | 6.1 | 0.00 | 0.04 | 0.00 | 59 | |
| 20260509103106 | 71 | 138 | 2.6 | 6.1 | 0.00 | 0.04 | 0.00 | 59 | |
| 20260509103006 | 71 | 3 | 1.7 | 7.0 | 0.00 | 0.04 | 0.00 | 59 | |
| 20260509102906 | 70 | 29 | 2.6 | 7.0 | 0.00 | 0.04 | 0.00 | 59 | |
| 20260509102806 | 71 | 13 | 3.5 | 7.0 | 0.00 | 0.04 | 0.00 | 59 | |
| 20260509102706 | 71 | 10 | 2.6 | 7.0 | 0.00 | 0.04 | 0.00 | 59 | |
| 20260509102606 | 71 | 27 | 2.6 | 7.0 | 0.00 | 0.04 | 0.00 | 59 | |
| 20260509102506 | 71 | 24 | 1.7 | 4.3 | 0.00 | 0.04 | 0.00 | 59 | |
| 20260509102406 | 70 | 33 | 0.9 | 7.0 | 0.00 | 0.04 | 0.00 | 59 | |
| 20260509102306 | 70 | 27 | 1.7 | 7.0 | 0.00 | 0.04 | 0.00 | 59 | |
| 20260509102206 | 70 | 29 | 1.7 | 7.0 | 0.00 | 0.04 | 0.00 | 59 | |
| 20260509102106 | 70 | 19 | 2.6 | 7.0 | 0.00 | 0.04 | 0.00 | 59 | |
| 20260509102006 | 70 | 25 | 3.5 | 7.0 | 0.00 | 0.04 | 0.00 | 59 | |
| 20260509101906 | 70 | 343 | 1.7 | 4.3 | 0.00 | 0.04 | 0.00 | 59 | |
| 20260509101806 | 69 | 29 | 0.9 | 4.3 | 0.00 | 0.04 | 0.00 | 59 | |
| 20260509101706 | 69 | 19 | 2.6 | 4.3 | 0.00 | 0.04 | 0.00 | 59 | |
| 20260509101606 | 70 | 28 | 2.6 | 4.3 | 0.00 | 0.04 | 0.00 | 59 | |
| 20260509101506 | 70 | 12 | 2.6 | 4.3 | 0.00 | 0.04 | 0.00 | 59 | |
| 20260509101406 | 70 | 25 | 2.6 | 6.1 | 0.00 | 0.04 | 0.00 | 59 | |
| 20260509101306 | 69 | 23 | 1.7 | 6.1 | 0.00 | 0.04 | 0.00 | 59 | |
| 20260509101206 | 69 | 86 | 1.7 | 7.0 | 0.00 | 0.04 | 0.00 | 59 | |
| 20260509101106 | 69 | 21 | 2.6 | 7.0 | 0.00 | 0.04 | 0.00 | 59 | |
| 20260509101006 | 69 | 26 | 2.6 | 7.0 | 0.00 | 0.04 | 0.00 | 59 | |
| 20260509100906 | 69 | 25 | 1.7 | 7.0 | 0.00 | 0.04 | 0.00 | 59 | |
| 20260509100806 | 69 | 14 | 2.6 | 7.0 | 0.00 | 0.04 | 0.00 | 59 | |
| 20260509100706 | 69 | 25 | 1.7 | 4.3 | 0.00 | 0.04 | 0.00 | 59 | |
| 20260509100606 | 69 | 332 | 1.7 | 4.3 | 0.00 | 0.04 | 0.00 | 59 | |
| 20260509100506 | 69 | 20 | 2.6 | 4.3 | 0.00 | 0.04 | 0.00 | 59 | |
| 20260509100406 | 69 | 21 | 2.6 | 4.3 | 0.00 | 0.04 | 0.00 | 59 | |
| 20260509100306 | 69 | 19 | 2.6 | 6.1 | 0.00 | 0.04 | 0.00 | 59 | |
| 20260509100206 | 69 | 14 | 0.9 | 6.1 | 0.00 | 0.04 | 0.00 | 59 | |
| 20260509100106 | 69 | 29 | 0.9 | 6.1 | 0.00 | 0.04 | 0.00 | 59 | |
| 20260509100006 | 69 | 13 | 2.6 | 6.1 | 0.00 | 0.04 | 0.00 | 59 | |
| 20260509095906 | 69 | 12 | 3.5 | 6.1 | 0.00 | 0.04 | 0.00 | 59 | |
| 20260509095806 | 69 | 10 | 0.9 | 4.3 | 0.00 | 0.04 | 0.00 | 59 | |
| 20260509095706 | 69 | 22 | 1.7 | 4.3 | 0.00 | 0.04 | 0.00 | 59 | |
| 20260509095606 | 69 | 35 | 1.7 | 6.1 | 0.00 | 0.04 | 0.00 | 59 | |
| 20260509095506 | 69 | 27 | 0.9 | 6.1 | 0.00 | 0.04 | 0.00 | 59 | |
| 20260509095406 | 69 | 354 | 1.7 | 6.1 | 0.00 | 0.04 | 0.00 | 59 | |
| 20260509095306 | 69 | 23 | 1.7 | 6.1 | 0.00 | 0.04 | 0.00 | 59 | |
| 20260509095206 | 69 | 20 | 1.7 | 6.1 | 0.00 | 0.04 | 0.00 | 59 | |
| 20260509095106 | 69 | 353 | 1.7 | 6.1 | 0.00 | 0.04 | 0.00 | 59 | |
| 20260509095006 | 69 | 30 | 2.6 | 6.1 | 0.00 | 0.04 | 0.00 | 59 | |
| 20260509094906 | 69 | 18 | 2.6 | 6.1 | 0.00 | 0.04 | 0.00 | 59 | |
| 20260509094806 | 69 | 20 | 1.7 | 3.5 | 0.00 | 0.04 | 0.00 | 59 | |
| 20260509094706 | 69 | 30 | 0.9 | 4.3 | 0.00 | 0.04 | 0.00 | 59 | |
| 20260509094606 | 69 | 25 | 0.0 | 4.3 | 0.00 | 0.04 | 0.00 | 59 | |
| 20260509094506 | 69 | 29 | 0.0 | 6.1 | 0.00 | 0.04 | 0.00 | 59 | |
| 20260509094406 | 68 | 341 | 0.9 | 6.1 | 0.00 | 0.04 | 0.00 | 59 | |
| 20260509094306 | 68 | 20 | 2.6 | 6.1 | 0.00 | 0.04 | 0.00 | 59 | |
| 20260509094206 | 68 | 21 | 2.6 | 6.1 | 0.00 | 0.04 | 0.00 | 59 | |
| 20260509094106 | 68 | 41 | 1.7 | 6.1 | 0.00 | 0.04 | 0.00 | 59 | |
| 20260509094006 | 68 | 20 | 2.6 | 7.0 | 0.00 | 0.04 | 0.00 | 59 | |
| 20260509093906 | 68 | 15 | 2.6 | 7.0 | 0.00 | 0.04 | 0.00 | 59 | |
| 20260509093806 | 68 | 33 | 1.7 | 7.0 | 0.00 | 0.04 | 0.00 | 59 | |
| 20260509093706 | 68 | 23 | 2.6 | 7.0 | 0.00 | 0.04 | 0.00 | 59 | |
| 20260509093606 | 68 | 347 | 3.5 | 7.0 | 0.00 | 0.04 | 0.00 | 59 | |
| 20260509093506 | 68 | 3 | 1.7 | 4.3 | 0.00 | 0.04 | 0.00 | 59 | |
| 20260509093406 | 68 | 26 | 0.0 | 4.3 | 0.00 | 0.04 | 0.00 | 59 | |
| 20260509093306 | 68 | 32 | 1.7 | 4.3 | 0.00 | 0.04 | 0.00 | 59 | |
| 20260509093206 | 68 | 355 | 1.7 | 4.3 | 0.00 | 0.04 | 0.00 | 59 | |
| 20260509093106 | 68 | 30 | 1.7 | 3.5 | 0.00 | 0.04 | 0.00 | 59 | |
| 20260509093006 | 67 | 19 | 1.7 | 3.5 | 0.00 | 0.04 | 0.00 | 59 | |
| 20260509092906 | 67 | 29 | 1.7 | 3.5 | 0.00 | 0.04 | 0.00 | 59 | |
| 20260509092806 | 67 | 29 | 1.7 | 4.3 | 0.00 | 0.04 | 0.00 | 59 | |
| 20260509092706 | 68 | 342 | 1.7 | 4.3 | 0.00 | 0.04 | 0.00 | 59 | |
| 20260509092606 | 67 | 17 | 2.6 | 4.3 | 0.00 | 0.04 | 0.00 | 59 | |
| 20260509092506 | 68 | 17 | 0.9 | 4.3 | 0.00 | 0.04 | 0.00 | 59 | |
| 20260509092406 | 68 | 24 | 1.7 | 4.3 | 0.00 | 0.04 | 0.00 | 59 | |
| 20260509092306 | 67 | 24 | 1.7 | 4.3 | 0.00 | 0.04 | 0.00 | 59 | |
| 20260509092206 | 67 | 27 | 2.6 | 4.3 | 0.00 | 0.04 | 0.00 | 59 | |
| 20260509092106 | 67 | 10 | 1.7 | 4.3 | 0.00 | 0.04 | 0.00 | 59 | |
| 20260509092006 | 68 | 21 | 2.6 | 4.3 | 0.00 | 0.04 | 0.00 | 59 | |
| 20260509091906 | 68 | 28 | 1.7 | 4.3 | 0.00 | 0.04 | 0.00 | 59 | |
| 20260509091806 | 68 | 26 | 0.9 | 4.3 | 0.00 | 0.04 | 0.00 | 59 | |
| 20260509091706 | 67 | 47 | 0.9 | 6.1 | 0.00 | 0.04 | 0.00 | 59 | |
| 20260509091606 | 67 | 21 | 2.6 | 6.1 | 0.00 | 0.04 | 0.00 | 59 | |
| 20260509091506 | 67 | 11 | 2.6 | 6.1 | 0.00 | 0.04 | 0.00 | 59 | |
| 20260509091406 | 67 | 350 | 2.6 | 6.1 | 0.00 | 0.04 | 0.00 | 59 | |
| 20260509091306 | 67 | 18 | 1.7 | 6.1 | 0.00 | 0.04 | 0.00 | 59 | |
| 20260509091206 | 67 | 29 | 2.6 | 6.1 | 0.00 | 0.04 | 0.00 | 59 | |
| 20260509091106 | 67 | 31 | 0.0 | 3.5 | 0.00 | 0.04 | 0.00 | 59 | |
| 20260509091006 | 67 | 27 | 0.0 | 3.5 | 0.00 | 0.04 | 0.00 | 59 | |
| 20260509090906 | 67 | 24 | 0.9 | 3.5 | 0.00 | 0.04 | 0.00 | 59 | |
| 20260509090806 | 67 | 32 | 0.0 | 3.5 | 0.00 | 0.04 | 0.00 | 59 | |
| 20260509090706 | 67 | 53 | 1.7 | 3.5 | 0.00 | 0.04 | 0.00 | 59 | |
| 20260509090606 | 67 | 31 | 1.7 | 4.3 | 0.00 | 0.04 | 0.00 | 59 | |
| 20260509090506 | 67 | 348 | 0.0 | 4.3 | 0.00 | 0.04 | 0.00 | 59 | |
| 20260509090406 | 67 | 21 | 0.9 | 4.3 | 0.00 | 0.04 | 0.00 | 59 | |
| 20260509090306 | 67 | 15 | 1.7 | 4.3 | 0.00 | 0.04 | 0.00 | 59 | |
| 20260509090206 | 67 | 18 | 1.7 | 4.3 | 0.00 | 0.04 | 0.00 | 59 | |
| 20260509090106 | 67 | 16 | 1.7 | 4.3 | 0.00 | 0.04 | 0.00 | 59 | |
| 20260509090006 | 66 | 344 | 0.9 | 3.5 | 0.00 | 0.04 | 0.00 | 59 | |
| 20260509085906 | 66 | 29 | 0.0 | 3.5 | 0.00 | 0.04 | 0.00 | 59 | |
| 20260509085806 | 66 | 30 | 0.9 | 3.5 | 0.00 | 0.04 | 0.00 | 59 | |
| 20260509085706 | 66 | 30 | 0.0 | 4.3 | 0.00 | 0.04 | 0.00 | 59 | |
| 20260509085606 | 66 | 28 | 1.7 | 4.3 | 0.00 | 0.04 | 0.00 | 59 | |
| 20260509085506 | 66 | 30 | 0.9 | 4.3 | 0.00 | 0.04 | 0.00 | 59 | |
| 20260509085406 | 65 | 91 | 0.0 | 4.3 | 0.00 | 0.04 | 0.00 | 59 | |
| 20260509085306 | 65 | 16 | 2.6 | 4.3 | 0.00 | 0.04 | 0.00 | 59 | |
| 20260509085206 | 65 | 26 | 1.7 | 3.5 | 0.00 | 0.04 | 0.00 | 59 | |
| 20260509085106 | 65 | 32 | 1.7 | 3.5 | 0.00 | 0.04 | 0.00 | 59 | |
| 20260509085006 | 64 | 345 | 0.9 | 3.5 | 0.00 | 0.04 | 0.00 | 59 | |
| 20260509084906 | 64 | 23 | 0.9 | 3.5 | 0.00 | 0.04 | 0.00 | 59 | |
| 20260509084806 | 65 | 15 | 1.7 | 3.5 | 0.00 | 0.04 | 0.00 | 59 | |
| 20260509084706 | 65 | 25 | 1.7 | 3.5 | 0.00 | 0.04 | 0.00 | 59 | |
| 20260509084606 | 65 | 17 | 1.7 | 4.3 | 0.00 | 0.04 | 0.00 | 59 | |
| 20260509084506 | 65 | 16 | 1.7 | 4.3 | 0.00 | 0.04 | 0.00 | 59 | |
| 20260509084406 | 65 | 23 | 2.6 | 4.3 | 0.00 | 0.04 | 0.00 | 59 | |
| 20260509084306 | 65 | 13 | 1.7 | 4.3 | 0.00 | 0.04 | 0.00 | 59 | |
| 20260509084206 | 65 | 26 | 1.7 | 4.3 | 0.00 | 0.04 | 0.00 | 59 | |
| 20260509084106 | 65 | 24 | 0.0 | 4.3 | 0.00 | 0.04 | 0.00 | 59 | |
| 20260509084006 | 65 | 21 | 1.7 | 4.3 | 0.00 | 0.04 | 0.00 | 59 | |
| 20260509083906 | 65 | 27 | 2.6 | 4.3 | 0.00 | 0.04 | 0.00 | 59 | |
| 20260509083806 | 65 | 18 | 2.6 | 4.3 | 0.00 | 0.04 | 0.00 | 59 | |
| 20260509083706 | 64 | 32 | 2.6 | 4.3 | 0.00 | 0.04 | 0.00 | 59 | |
| 20260509083606 | 65 | 346 | 1.7 | 4.3 | 0.00 | 0.04 | 0.00 | 59 | |
| 20260509083506 | 64 | 10 | 1.7 | 4.3 | 0.00 | 0.04 | 0.00 | 59 | |
| 20260509083406 | 65 | 29 | 2.6 | 4.3 | 0.00 | 0.04 | 0.00 | 59 | |
| 20260509083306 | 65 | 15 | 2.6 | 4.3 | 0.00 | 0.04 | 0.00 | 59 | |
| 20260509083206 | 65 | 22 | 1.7 | 4.3 | 0.00 | 0.04 | 0.00 | 59 | |
| 20260509083106 | 65 | 7 | 0.9 | 4.3 | 0.00 | 0.04 | 0.00 | 59 | |
| 20260509083006 | 65 | 29 | 1.7 | 4.3 | 0.00 | 0.04 | 0.00 | 59 | |
| 20260509082906 | 65 | 26 | 1.7 | 4.3 | 0.00 | 0.04 | 0.00 | 59 | |
| 20260509082806 | 65 | 30 | 1.7 | 4.3 | 0.00 | 0.04 | 0.00 | 59 | |
| 20260509082706 | 65 | 34 | 0.9 | 4.3 | 0.00 | 0.04 | 0.00 | 59 | |
| 20260509082606 | 65 | 27 | 1.7 | 4.3 | 0.00 | 0.04 | 0.00 | 59 | |
| 20260509082506 | 65 | 29 | 0.0 | 4.3 | 0.00 | 0.04 | 0.00 | 59 | |
| 20260509082406 | 64 | 32 | 0.0 | 4.3 | 0.00 | 0.04 | 0.00 | 59 | |
| 20260509082307 | 64 | 30 | 1.7 | 4.3 | 0.00 | 0.04 | 0.00 | 59 | |
| 20260509082206 | 65 | 24 | 1.7 | 4.3 | 0.00 | 0.04 | 0.00 | 59 | |
| 20260509082106 | 65 | 25 | 0.0 | 4.3 | 0.00 | 0.04 | 0.00 | 59 | |
| 20260509082006 | 64 | 27 | 0.0 | 4.3 | 0.00 | 0.04 | 0.00 | 59 | |
| 20260509081906 | 64 | 25 | 1.7 | 4.3 | 0.00 | 0.04 | 0.00 | 59 | |
| 20260509081806 | 64 | 26 | 0.9 | 4.3 | 0.00 | 0.04 | 0.00 | 59 | |
| 20260509081706 | 64 | 28 | 2.6 | 4.3 | 0.00 | 0.04 | 0.00 | 59 | |
| 20260509081606 | 64 | 356 | 0.9 | 4.3 | 0.00 | 0.04 | 0.00 | 59 | |
| 20260509081506 | 64 | 330 | 0.9 | 4.3 | 0.00 | 0.04 | 0.00 | 59 | |
| 20260509081406 | 64 | 30 | 1.7 | 4.3 | 0.00 | 0.04 | 0.00 | 59 | |
| 20260509081306 | 64 | 26 | 1.7 | 4.3 | 0.00 | 0.04 | 0.00 | 59 | |
| 20260509081206 | 64 | 20 | 2.6 | 4.3 | 0.00 | 0.04 | 0.00 | 59 | |
| 20260509081106 | 65 | 10 | 0.9 | 4.3 | 0.00 | 0.04 | 0.00 | 59 | |
| 20260509081006 | 65 | 333 | 0.0 | 4.3 | 0.00 | 0.04 | 0.00 | 59 | |
| 20260509080906 | 64 | 25 | 0.9 | 4.3 | 0.00 | 0.04 | 0.00 | 59 | |
| 20260509080806 | 64 | 356 | 1.7 | 4.3 | 0.00 | 0.04 | 0.00 | 59 | |
| 20260509080706 | 65 | 15 | 2.6 | 4.3 | 0.00 | 0.04 | 0.00 | 59 | |
| 20260509080606 | 65 | 5 | 0.9 | 3.5 | 0.00 | 0.04 | 0.00 | 59 | |
| 20260509080506 | 64 | 13 | 0.0 | 3.5 | 0.00 | 0.04 | 0.00 | 59 | |
| 20260509080406 | 64 | 10 | 0.0 | 3.5 | 0.00 | 0.04 | 0.00 | 59 | |
| 20260509080306 | 64 | 14 | 0.9 | 4.3 | 0.00 | 0.04 | 0.00 | 59 | |
| 20260509080206 | 63 | 28 | 0.0 | 4.3 | 0.00 | 0.04 | 0.00 | 59 | |
| 20260509080106 | 63 | 30 | 0.9 | 4.3 | 0.00 | 0.04 | 0.00 | 58 | |
| 20260509080006 | 64 | 326 | 0.9 | 4.3 | 0.00 | 0.04 | 0.00 | 59 | |
| 20260509075906 | 64 | 35 | 1.7 | 4.3 | 0.00 | 0.04 | 0.00 | 58 | |
| 20260509075806 | 64 | 38 | 0.0 | 3.5 | 0.00 | 0.04 | 0.00 | 58 | |
| 20260509075706 | 64 | 14 | 0.0 | 6.1 | 0.00 | 0.04 | 0.00 | 58 | |
| 20260509075606 | 63 | 28 | 1.7 | 6.1 | 0.00 | 0.04 | 0.00 | 58 | |
| 20260509075506 | 63 | 29 | 0.0 | 6.1 | 0.00 | 0.04 | 0.00 | 60 | |
| 20260509075406 | 63 | 32 | 0.0 | 6.1 | 0.00 | 0.04 | 0.00 | 60 |